Time,TemperatureF,DewpointF,PressureIn,WindDirection,WindDirectionDegrees,WindSpeedMPH,WindSpeedGustMPH,Humidity,HourlyPrecipIn,Conditions,Clouds,dailyrainin,SolarRadiationWatts/m^2,SoftwareType,DateUTC
2013-06-22 00:01:00,82.5,75.3,30.07,East,96,1.0,10.0,79,0.00,,FEW,0.00,0.00,VWS V14.01,2013-06-22 04:01:00,
2013-06-22 00:06:00,82.5,74.9,30.07,SE,127,4.0,6.0,78,0.00,,FEW,0.00,0.00,VWS V14.01,2013-06-22 04:06:00,
2013-06-22 00:11:00,82.3,74.0,30.07,ENE,76,3.0,9.0,76,0.00,,FEW,0.00,0.00,VWS V14.01,2013-06-22 04:11:00,
2013-06-22 00:16:00,82.2,73.9,30.06,SE,136,3.0,5.0,76,0.00,,FEW,0.00,0.00,VWS V14.01,2013-06-22 04:16:00,
2013-06-22 00:21:00,82.4,74.5,30.06,SE,135,4.0,9.0,77,0.00,,FEW,0.00,0.00,VWS V14.01,2013-06-22 04:21:00,
2013-06-22 00:22:00,82.4,74.5,30.06,SE,127,4.0,7.0,77,0.00,,FEW,0.00,0.00,VWS V14.01,2013-06-22 04:22:00,
2013-06-22 00:26:00,82.4,74.5,30.06,ENE,66,5.0,7.0,77,0.00,,FEW,0.00,0.00,VWS V14.01,2013-06-22 04:26:00,
2013-06-22 00:27:00,82.4,74.5,30.06,East,89,2.0,7.0,77,0.00,,FEW,0.00,0.00,VWS V14.01,2013-06-22 04:27:00,
2013-06-22 00:31:00,82.4,74.5,30.06,NE,51,2.0,7.0,77,0.00,,FEW,0.00,0.00,VWS V14.01,2013-06-22 04:31:00,
2013-06-22 00:32:00,82.4,74.9,30.06,NE,54,3.0,3.0,78,0.00,,FEW,0.00,0.00,VWS V14.01,2013-06-22 04:32:00,
2013-06-22 00:36:00,82.4,74.9,30.06,ENE,71,5.0,7.0,78,0.00,,FEW,0.00,0.00,VWS V14.01,2013-06-22 04:36:00,
2013-06-22 00:37:00,82.4,74.9,30.06,NE,40,4.0,8.0,78,0.00,,FEW,0.00,0.00,VWS V14.01,2013-06-22 04:37:00,
2013-06-22 00:41:00,82.2,74.3,30.06,ESE,121,4.0,8.0,77,0.00,,FEW,0.00,0.00,VWS V14.01,2013-06-22 04:41:00,
2013-06-22 00:42:00,82.2,74.3,30.06,ENE,67,2.0,8.0,77,0.00,,FEW,0.00,0.00,VWS V14.01,2013-06-22 04:42:00,
2013-06-22 00:46:00,82.2,74.3,30.05,ENE,66,5.0,9.0,77,0.00,,FEW,0.00,0.00,VWS V14.01,2013-06-22 04:46:00,
2013-06-22 00:47:00,82.3,74.4,30.05,East,81,3.0,9.0,77,0.00,,FEW,0.00,0.00,VWS V14.01,2013-06-22 04:47:00,
2013-06-22 00:51:00,82.2,73.9,30.05,ENE,67,2.0,9.0,76,0.00,,FEW,0.00,0.00,VWS V14.01,2013-06-22 04:51:00,
2013-06-22 00:52:00,82.2,73.9,30.05,NE,51,2.0,3.0,76,0.00,,FEW,0.00,0.00,VWS V14.01,2013-06-22 04:52:00,
2013-06-22 00:53:00,82.2,73.9,30.05,SE,130,4.0,5.0,76,0.00,,FEW,0.00,0.00,VWS V14.01,2013-06-22 04:53:00,
2013-06-22 00:56:00,82.1,73.8,30.05,ENE,61,3.0,7.0,76,0.00,,FEW,0.00,0.00,VWS V14.01,2013-06-22 04:56:00,
2013-06-22 00:57:00,82.1,73.8,30.05,NE,56,3.0,7.0,76,0.00,,FEW,0.00,0.00,VWS V14.01,2013-06-22 04:57:00,
2013-06-22 00:58:00,82.2,74.3,30.05,ESE,115,3.0,7.0,77,0.00,,FEW,0.00,0.00,VWS V14.01,2013-06-22 04:58:00,
2013-06-22 01:01:00,82.2,73.9,30.05,East,90,1.0,7.0,76,0.00,,FEW,0.00,0.00,VWS V14.01,2013-06-22 05:01:00,
2013-06-22 01:02:00,82.2,73.9,30.05,ENE,65,2.0,2.0,76,0.00,,FEW,0.00,0.00,VWS V14.01,2013-06-22 05:02:00,
2013-06-22 01:03:00,82.2,74.3,30.05,NNE,27,3.0,6.0,77,0.00,,FEW,0.00,0.00,VWS V14.01,2013-06-22 05:03:00,
2013-06-22 01:07:00,82.2,74.3,30.05,ENE,60,1.0,6.0,77,0.00,,FEW,0.00,0.00,VWS V14.01,2013-06-22 05:07:00,
2013-06-22 01:08:00,82.2,74.3,30.05,ENE,71,3.0,6.0,77,0.00,,FEW,0.00,0.00,VWS V14.01,2013-06-22 05:08:00,
2013-06-22 01:12:00,82.1,73.8,30.05,East,80,2.0,5.0,76,0.00,,FEW,0.00,0.00,VWS V14.01,2013-06-22 05:12:00,
2013-06-22 01:13:00,82.1,73.8,30.05,East,80,6.0,6.0,76,0.00,,FEW,0.00,0.00,VWS V14.01,2013-06-22 05:13:00,
2013-06-22 01:14:00,82.1,73.8,30.05,East,84,6.0,7.0,76,0.00,,FEW,0.00,0.00,VWS V14.01,2013-06-22 05:14:00,
2013-06-22 01:17:00,82.2,73.9,30.04,East,80,1.0,10.0,76,0.00,,FEW,0.00,0.00,VWS V14.01,2013-06-22 05:17:00,
2013-06-22 01:18:00,82.2,73.9,30.04,East,84,1.0,10.0,76,0.00,,FEW,0.00,0.00,VWS V14.01,2013-06-22 05:18:00,
2013-06-22 01:19:00,82.2,73.9,30.04,NNE,14,2.0,10.0,76,0.00,,FEW,0.00,0.00,VWS V14.01,2013-06-22 05:19:00,
2013-06-22 01:22:00,82.3,74.4,30.04,ENE,69,3.0,5.0,77,0.00,,FEW,0.00,0.00,VWS V14.01,2013-06-22 05:22:00,
2013-06-22 01:23:00,82.3,74.8,30.04,ENE,73,4.0,5.0,78,0.00,,FEW,0.00,0.00,VWS V14.01,2013-06-22 05:23:00,
2013-06-22 01:24:00,82.3,74.8,30.04,ENE,77,3.0,5.0,78,0.00,,FEW,0.00,0.00,VWS V14.01,2013-06-22 05:24:00,
2013-06-22 01:27:00,82.3,74.8,30.04,East,97,3.0,7.0,78,0.00,,FEW,0.00,0.00,VWS V14.01,2013-06-22 05:27:00,
2013-06-22 01:28:00,82.3,74.8,30.04,East,92,3.0,7.0,78,0.00,,FEW,0.00,0.00,VWS V14.01,2013-06-22 05:28:00,
2013-06-22 01:29:00,82.3,74.8,30.04,ENE,68,3.0,7.0,78,0.00,,FEW,0.00,0.00,VWS V14.01,2013-06-22 05:29:00,
2013-06-22 01:32:00,82.2,74.3,30.03,ENE,59,2.0,7.0,77,0.00,,FEW,0.00,0.00,VWS V14.01,2013-06-22 05:32:00,
2013-06-22 01:33:00,82.2,74.3,30.03,East,79,0.0,7.0,77,0.00,,FEW,0.00,0.00,VWS V14.01,2013-06-22 05:33:00,
2013-06-22 01:34:00,82.2,74.7,30.03,ESE,123,2.0,7.0,78,0.00,,FEW,0.00,0.00,VWS V14.01,2013-06-22 05:34:00,
2013-06-22 01:37:00,82.2,74.7,30.03,ENE,66,7.0,7.0,78,0.00,,FEW,0.00,0.00,VWS V14.01,2013-06-22 05:37:00,
2013-06-22 01:38:00,82.2,74.7,30.03,SE,126,6.0,7.0,78,0.00,,FEW,0.00,0.00,VWS V14.01,2013-06-22 05:38:00,
2013-06-22 01:40:00,82.2,74.7,30.03,NNE,21,1.0,7.0,78,0.00,,FEW,0.00,0.00,VWS V14.01,2013-06-22 05:40:00,
2013-06-22 01:42:00,82.2,74.7,30.03,ENE,69,5.0,5.0,78,0.00,,FEW,0.00,0.00,VWS V14.01,2013-06-22 05:42:00,
2013-06-22 01:43:00,82.2,74.7,30.03,East,98,2.0,5.0,78,0.00,,FEW,0.00,0.00,VWS V14.01,2013-06-22 05:43:00,
2013-06-22 01:44:00,82.2,74.7,30.03,East,91,1.0,5.0,78,0.00,,FEW,0.00,0.00,VWS V14.01,2013-06-22 05:44:00,
2013-06-22 01:47:00,82.1,74.6,30.03,ENE,69,4.0,6.0,78,0.00,,FEW,0.00,0.00,VWS V14.01,2013-06-22 05:47:00,
2013-06-22 01:48:00,82.1,74.6,30.03,ESE,113,1.0,6.0,78,0.00,,FEW,0.00,0.00,VWS V14.01,2013-06-22 05:48:00,
2013-06-22 01:49:00,82.1,74.6,30.03,East,94,5.0,6.0,78,0.00,,FEW,0.00,0.00,VWS V14.01,2013-06-22 05:49:00,
2013-06-22 01:52:00,82.0,74.1,30.03,ENE,64,1.0,4.0,77,0.00,,FEW,0.00,0.00,VWS V14.01,2013-06-22 05:52:00,
2013-06-22 01:53:00,82.0,74.1,30.03,ESE,115,3.0,5.0,77,0.00,,FEW,0.00,0.00,VWS V14.01,2013-06-22 05:53:00,
2013-06-22 01:54:00,82.0,74.1,30.03,East,79,5.0,5.0,77,0.00,,FEW,0.00,0.00,VWS V14.01,2013-06-22 05:54:00,
2013-06-22 01:58:00,82.1,74.6,30.03,ESE,108,1.0,7.0,78,0.00,,FEW,0.00,0.00,VWS V14.01,2013-06-22 05:58:00,
2013-06-22 01:59:00,82.1,74.2,30.03,ESE,108,0.0,7.0,77,0.00,,FEW,0.00,0.00,VWS V14.01,2013-06-22 05:59:00,
2013-06-22 02:00:00,82.1,74.2,30.03,SE,128,0.0,7.0,77,0.00,,FEW,0.00,0.00,VWS V14.01,2013-06-22 06:00:00,
2013-06-22 02:03:00,82.1,74.2,30.03,East,86,5.0,7.0,77,0.00,,FEW,0.00,0.00,VWS V14.01,2013-06-22 06:03:00,
2013-06-22 02:04:00,82.1,74.2,30.03,NE,53,3.0,7.0,77,0.00,,FEW,0.00,0.00,VWS V14.01,2013-06-22 06:04:00,
2013-06-22 02:05:00,82.1,74.2,30.03,ESE,120,0.0,7.0,77,0.00,,FEW,0.00,0.00,VWS V14.01,2013-06-22 06:05:00,
2013-06-22 02:08:00,82.1,74.6,30.03,ESE,113,1.0,7.0,78,0.00,,FEW,0.00,0.00,VWS V14.01,2013-06-22 06:08:00,
2013-06-22 02:09:00,82.1,74.6,30.03,ENE,74,5.0,7.0,78,0.00,,FEW,0.00,0.00,VWS V14.01,2013-06-22 06:09:00,
2013-06-22 02:10:00,82.1,74.6,30.03,East,94,2.0,7.0,78,0.00,,FEW,0.00,0.00,VWS V14.01,2013-06-22 06:10:00,
2013-06-22 02:13:00,82.1,74.6,30.03,SE,128,1.0,8.0,78,0.00,,FEW,0.00,0.00,VWS V14.01,2013-06-22 06:13:00,
2013-06-22 02:14:00,82.1,74.6,30.03,NE,34,3.0,8.0,78,0.00,,FEW,0.00,0.00,VWS V14.01,2013-06-22 06:14:00,
2013-06-22 02:15:00,82.2,74.7,30.03,ENE,62,0.0,8.0,78,0.00,,FEW,0.00,0.00,VWS V14.01,2013-06-22 06:15:00,
2013-06-22 02:18:00,82.2,74.7,30.03,East,84,5.0,8.0,78,0.00,,FEW,0.00,0.00,VWS V14.01,2013-06-22 06:18:00,
2013-06-22 02:19:00,82.1,74.6,30.03,ENE,76,1.0,8.0,78,0.00,,FEW,0.00,0.00,VWS V14.01,2013-06-22 06:19:00,
2013-06-22 02:20:00,82.1,74.6,30.03,East,90,2.0,8.0,78,0.00,,FEW,0.00,0.00,VWS V14.01,2013-06-22 06:20:00,
2013-06-22 02:21:00,82.1,74.6,30.03,ENE,70,3.0,8.0,78,0.00,,FEW,0.00,0.00,VWS V14.01,2013-06-22 06:21:00,
2013-06-22 02:24:00,82.1,74.6,30.03,ENE,70,4.0,5.0,78,0.00,,FEW,0.00,0.00,VWS V14.01,2013-06-22 06:24:00,
2013-06-22 02:25:00,82.1,74.6,30.03,ENE,63,2.0,5.0,78,0.00,,FEW,0.00,0.00,VWS V14.01,2013-06-22 06:25:00,
2013-06-22 02:26:00,82.1,74.6,30.03,East,101,3.0,5.0,78,0.00,,FEW,0.00,0.00,VWS V14.01,2013-06-22 06:26:00,
2013-06-22 02:29:00,82.1,74.6,30.03,NNE,31,5.0,7.0,78,0.00,,FEW,0.00,0.00,VWS V14.01,2013-06-22 06:29:00,
2013-06-22 02:30:00,82.2,74.7,30.03,ENE,78,3.0,8.0,78,0.00,,FEW,0.00,0.00,VWS V14.01,2013-06-22 06:30:00,
2013-06-22 02:31:00,82.2,74.7,30.03,East,99,5.0,8.0,78,0.00,,FEW,0.00,0.00,VWS V14.01,2013-06-22 06:31:00,
2013-06-22 02:34:00,82.2,74.7,30.03,East,83,6.0,7.0,78,0.00,,FEW,0.00,0.00,VWS V14.01,2013-06-22 06:34:00,
2013-06-22 02:35:00,82.2,74.7,30.03,ESE,117,2.0,7.0,78,0.00,,FEW,0.00,0.00,VWS V14.01,2013-06-22 06:35:00,
2013-06-22 02:36:00,82.2,74.7,30.03,NE,35,6.0,8.0,78,0.00,,FEW,0.00,0.00,VWS V14.01,2013-06-22 06:36:00,
2013-06-22 02:39:00,82.3,75.1,30.03,NE,34,5.0,8.0,79,0.00,,FEW,0.00,0.00,VWS V14.01,2013-06-22 06:39:00,
2013-06-22 02:40:00,82.3,75.1,30.03,ENE,70,2.0,8.0,79,0.00,,FEW,0.00,0.00,VWS V14.01,2013-06-22 06:40:00,
2013-06-22 02:41:00,82.3,75.1,30.03,ENE,67,4.0,8.0,79,0.00,,FEW,0.00,0.00,VWS V14.01,2013-06-22 06:41:00,
2013-06-22 02:44:00,82.3,74.8,30.03,ESE,111,2.0,7.0,78,0.00,,FEW,0.00,0.00,VWS V14.01,2013-06-22 06:44:00,
2013-06-22 02:45:00,82.3,74.8,30.03,East,90,2.0,7.0,78,0.00,,FEW,0.00,0.00,VWS V14.01,2013-06-22 06:45:00,
2013-06-22 02:46:00,82.2,74.7,30.02,ENE,64,1.0,7.0,78,0.00,,FEW,0.00,0.00,VWS V14.01,2013-06-22 06:46:00,
2013-06-22 02:49:00,82.3,75.1,30.02,East,90,5.0,7.0,79,0.00,,FEW,0.00,0.00,VWS V14.01,2013-06-22 06:49:00,
2013-06-22 02:50:00,82.3,75.1,30.02,ENE,61,2.0,7.0,79,0.00,,FEW,0.00,0.00,VWS V14.01,2013-06-22 06:50:00,
2013-06-22 02:51:00,82.2,75.0,30.02,ENE,65,2.0,7.0,79,0.00,,FEW,0.00,0.00,VWS V14.01,2013-06-22 06:51:00,
2013-06-22 02:54:00,82.2,74.7,30.02,ESE,109,3.0,8.0,78,0.00,,FEW,0.00,0.00,VWS V14.01,2013-06-22 06:54:00,
2013-06-22 02:55:00,82.2,74.7,30.02,ENE,62,1.0,8.0,78,0.00,,FEW,0.00,0.00,VWS V14.01,2013-06-22 06:55:00,
2013-06-22 02:56:00,82.2,74.7,30.02,NE,51,2.0,8.0,78,0.00,,FEW,0.00,0.00,VWS V14.01,2013-06-22 06:56:00,
2013-06-22 02:57:00,82.2,74.7,30.02,ENE,63,1.0,8.0,78,0.00,,FEW,0.00,0.00,VWS V14.01,2013-06-22 06:57:00,
2013-06-22 02:59:00,82.1,74.9,30.02,East,100,5.0,8.0,79,0.00,,FEW,0.00,0.00,VWS V14.01,2013-06-22 06:59:00,
2013-06-22 03:00:00,82.2,74.7,30.02,ENE,61,2.0,8.0,78,0.00,,FEW,0.00,0.00,VWS V14.01,2013-06-22 07:00:00,
2013-06-22 03:01:00,82.1,74.6,30.02,ESE,107,2.0,8.0,78,0.00,,FEW,0.00,0.00,VWS V14.01,2013-06-22 07:01:00,
2013-06-22 03:02:00,82.1,74.9,30.02,East,80,3.0,8.0,79,0.00,,FEW,0.00,0.00,VWS V14.01,2013-06-22 07:02:00,
2013-06-22 03:05:00,82.1,74.6,30.02,ENE,57,3.0,8.0,78,0.00,,FEW,0.00,0.00,VWS V14.01,2013-06-22 07:05:00,
2013-06-22 03:06:00,82.1,74.9,30.02,ENE,65,2.0,8.0,79,0.00,,FEW,0.00,0.00,VWS V14.01,2013-06-22 07:06:00,
2013-06-22 03:07:00,82.2,75.0,30.02,ENE,76,2.0,8.0,79,0.00,,FEW,0.00,0.00,VWS V14.01,2013-06-22 07:07:00,
2013-06-22 03:10:00,82.1,74.9,30.02,SE,140,4.0,8.0,79,0.00,,FEW,0.00,0.00,VWS V14.01,2013-06-22 07:10:00,
2013-06-22 03:11:00,82.1,74.9,30.02,East,91,1.0,8.0,79,0.00,,FEW,0.00,0.00,VWS V14.01,2013-06-22 07:11:00,
2013-06-22 03:12:00,82.1,74.9,30.02,East,82,5.0,5.0,79,0.00,,FEW,0.00,0.00,VWS V14.01,2013-06-22 07:12:00,
2013-06-22 03:15:00,82.1,74.9,30.02,East,85,2.0,9.0,79,0.00,,FEW,0.00,0.00,VWS V14.01,2013-06-22 07:15:00,
2013-06-22 03:16:00,82.1,74.9,30.01,ENE,68,3.0,9.0,79,0.00,,FEW,0.00,0.00,VWS V14.01,2013-06-22 07:16:00,
2013-06-22 03:18:00,82.1,74.9,30.01,East,96,6.0,9.0,79,0.00,,FEW,0.00,0.00,VWS V14.01,2013-06-22 07:18:00,
2013-06-22 03:20:00,82.1,74.9,30.01,East,90,2.0,9.0,79,0.00,,FEW,0.00,0.00,VWS V14.01,2013-06-22 07:20:00,
2013-06-22 03:21:00,82.1,74.9,30.01,East,84,6.0,9.0,79,0.00,,FEW,0.00,0.00,VWS V14.01,2013-06-22 07:21:00,
2013-06-22 03:22:00,82.1,74.9,30.01,East,79,3.0,5.0,79,0.00,,FEW,0.00,0.00,VWS V14.01,2013-06-22 07:22:00,
2013-06-22 03:23:00,82.1,74.9,30.01,NNE,30,2.0,7.0,79,0.00,,FEW,0.00,0.00,VWS V14.01,2013-06-22 07:23:00,
2013-06-22 03:25:00,82.1,74.6,30.01,ENE,76,8.0,8.0,78,0.00,,FEW,0.00,0.00,VWS V14.01,2013-06-22 07:25:00,
2013-06-22 03:26:00,82.1,74.6,30.01,ENE,69,4.0,9.0,78,0.00,,FEW,0.00,0.00,VWS V14.01,2013-06-22 07:26:00,
2013-06-22 03:27:00,82.0,74.5,30.01,ENE,65,5.0,9.0,78,0.00,,FEW,0.00,0.00,VWS V14.01,2013-06-22 07:27:00,
2013-06-22 03:28:00,82.0,74.5,30.01,ENE,73,3.0,9.0,78,0.00,,FEW,0.00,0.00,VWS V14.01,2013-06-22 07:28:00,
2013-06-22 03:30:00,82.0,74.5,30.01,East,89,5.0,9.0,78,0.00,,FEW,0.00,0.00,VWS V14.01,2013-06-22 07:30:00,
2013-06-22 03:31:00,82.0,74.5,30.01,ENE,67,1.0,9.0,78,0.00,,FEW,0.00,0.00,VWS V14.01,2013-06-22 07:31:00,
2013-06-22 03:32:00,82.0,74.5,30.01,NE,55,3.0,3.0,78,0.00,,FEW,0.00,0.00,VWS V14.01,2013-06-22 07:32:00,
2013-06-22 03:33:00,82.0,74.5,30.01,East,101,1.0,3.0,78,0.00,,FEW,0.00,0.00,VWS V14.01,2013-06-22 07:33:00,
2013-06-22 03:35:00,82.1,74.6,30.01,NNE,26,8.0,8.0,78,0.00,,FEW,0.00,0.00,VWS V14.01,2013-06-22 07:35:00,
2013-06-22 03:36:00,82.1,74.6,30.01,ESE,103,1.0,8.0,78,0.00,,FEW,0.00,0.00,VWS V14.01,2013-06-22 07:36:00,
2013-06-22 03:37:00,82.1,74.6,30.01,ESE,121,5.0,8.0,78,0.00,,FEW,0.00,0.00,VWS V14.01,2013-06-22 07:37:00,
2013-06-22 03:38:00,82.1,74.9,30.01,ENE,65,2.0,8.0,79,0.00,,FEW,0.00,0.00,VWS V14.01,2013-06-22 07:38:00,
2013-06-22 03:40:00,82.2,75.0,30.01,East,94,2.0,8.0,79,0.00,,FEW,0.00,0.00,VWS V14.01,2013-06-22 07:40:00,
2013-06-22 03:41:00,82.2,75.0,30.01,East,90,5.0,8.0,79,0.00,,FEW,0.00,0.00,VWS V14.01,2013-06-22 07:41:00,
2013-06-22 03:42:00,82.1,74.9,30.01,ENE,59,3.0,5.0,79,0.00,,FEW,0.00,0.00,VWS V14.01,2013-06-22 07:42:00,
2013-06-22 03:43:00,82.1,74.6,30.01,ESE,118,1.0,5.0,78,0.00,,FEW,0.00,0.00,VWS V14.01,2013-06-22 07:43:00,
2013-06-22 03:45:00,82.1,74.6,30.01,East,84,1.0,8.0,78,0.00,,FEW,0.00,0.00,VWS V14.01,2013-06-22 07:45:00,
2013-06-22 03:47:00,82.1,74.6,30.01,SE,129,2.0,8.0,78,0.00,,FEW,0.00,0.00,VWS V14.01,2013-06-22 07:47:00,
2013-06-22 03:48:00,82.1,74.6,30.01,ENE,59,3.0,8.0,78,0.00,,FEW,0.00,0.00,VWS V14.01,2013-06-22 07:48:00,
2013-06-22 03:50:00,82.2,74.7,30.01,ESE,105,5.0,8.0,78,0.00,,FEW,0.00,0.00,VWS V14.01,2013-06-22 07:50:00,
2013-06-22 03:52:00,82.2,74.7,30.01,East,82,6.0,6.0,78,0.00,,FEW,0.00,0.00,VWS V14.01,2013-06-22 07:52:00,
2013-06-22 03:54:00,82.1,74.2,30.01,ENE,63,2.0,6.0,77,0.00,,FEW,0.00,0.00,VWS V14.01,2013-06-22 07:54:00,
2013-06-22 03:56:00,82.2,74.7,30.01,ENE,65,4.0,7.0,78,0.00,,FEW,0.00,0.00,VWS V14.01,2013-06-22 07:56:00,
2013-06-22 03:57:00,82.2,74.7,30.01,ENE,71,1.0,7.0,78,0.00,,FEW,0.00,0.00,VWS V14.01,2013-06-22 07:57:00,
2013-06-22 03:58:00,82.2,74.7,30.01,ENE,71,0.0,7.0,78,0.00,,FEW,0.00,0.00,VWS V14.01,2013-06-22 07:58:00,
2013-06-22 03:59:00,82.2,74.7,30.01,SE,135,0.0,7.0,78,0.00,,FEW,0.00,0.00,VWS V14.01,2013-06-22 07:59:00,
2013-06-22 04:01:00,82.2,74.7,30.01,ESE,118,2.0,7.0,78,0.00,,FEW,0.00,0.00,VWS V14.01,2013-06-22 08:01:00,
2013-06-22 04:02:00,82.2,74.7,30.01,ESE,122,1.0,4.0,78,0.00,,FEW,0.00,0.00,VWS V14.01,2013-06-22 08:02:00,
2013-06-22 04:03:00,82.2,74.7,30.01,East,94,3.0,5.0,78,0.00,,FEW,0.00,0.00,VWS V14.01,2013-06-22 08:03:00,
2013-06-22 04:04:00,82.2,74.3,30.01,NE,38,3.0,5.0,77,0.00,,FEW,0.00,0.00,VWS V14.01,2013-06-22 08:04:00,
2013-06-22 04:06:00,82.2,74.7,30.01,ENE,67,4.0,5.0,78,0.00,,FEW,0.00,0.00,VWS V14.01,2013-06-22 08:06:00,
2013-06-22 04:07:00,82.2,74.7,30.01,ESE,107,2.0,5.0,78,0.00,,FEW,0.00,0.00,VWS V14.01,2013-06-22 08:07:00,
2013-06-22 04:08:00,82.2,74.7,30.01,ENE,78,1.0,5.0,78,0.00,,FEW,0.00,0.00,VWS V14.01,2013-06-22 08:08:00,
2013-06-22 04:09:00,82.2,74.7,30.01,East,88,0.0,5.0,78,0.00,,FEW,0.00,0.00,VWS V14.01,2013-06-22 08:09:00,
2013-06-22 04:11:00,82.2,74.7,30.01,East,85,7.0,7.0,78,0.00,,FEW,0.00,0.00,VWS V14.01,2013-06-22 08:11:00,
2013-06-22 04:12:00,82.2,74.7,30.01,ENE,70,1.0,4.0,78,0.00,,FEW,0.00,0.00,VWS V14.01,2013-06-22 08:12:00,
2013-06-22 04:13:00,82.2,74.7,30.01,ENE,70,0.0,4.0,78,0.00,,FEW,0.00,0.00,VWS V14.01,2013-06-22 08:13:00,
2013-06-22 04:14:00,82.1,74.6,30.01,ENE,64,1.0,4.0,78,0.00,,FEW,0.00,0.00,VWS V14.01,2013-06-22 08:14:00,
2013-06-22 04:16:00,82.1,74.6,30.01,East,96,2.0,6.0,78,0.00,,FEW,0.00,0.00,VWS V14.01,2013-06-22 08:16:00,
2013-06-22 04:18:00,82.1,74.6,30.01,ENE,71,2.0,6.0,78,0.00,,FEW,0.00,0.00,VWS V14.01,2013-06-22 08:18:00,
2013-06-22 04:19:00,82.1,74.6,30.01,ENE,65,3.0,6.0,78,0.00,,FEW,0.00,0.00,VWS V14.01,2013-06-22 08:19:00,
2013-06-22 04:21:00,82.1,74.6,30.01,East,90,1.0,6.0,78,0.00,,FEW,0.00,0.00,VWS V14.01,2013-06-22 08:21:00,
2013-06-22 04:23:00,82.1,74.6,30.01,ESE,121,1.0,4.0,78,0.00,,FEW,0.00,0.00,VWS V14.01,2013-06-22 08:23:00,
2013-06-22 04:25:00,82.1,74.6,30.01,ESE,115,2.0,5.0,78,0.00,,FEW,0.00,0.00,VWS V14.01,2013-06-22 08:25:00,
2013-06-22 04:26:00,82.1,74.9,30.01,ESE,108,2.0,7.0,79,0.00,,FEW,0.00,0.00,VWS V14.01,2013-06-22 08:26:00,
2013-06-22 04:28:00,82.1,74.9,30.01,ESE,121,1.0,7.0,79,0.00,,FEW,0.00,0.00,VWS V14.01,2013-06-22 08:28:00,
2013-06-22 04:30:00,82.1,74.9,30.01,East,98,2.0,7.0,79,0.00,,FEW,0.00,0.00,VWS V14.01,2013-06-22 08:30:00,
2013-06-22 04:32:00,82.1,74.9,30.01,NE,49,2.0,4.0,79,0.00,,FEW,0.00,0.00,VWS V14.01,2013-06-22 08:32:00,
2013-06-22 04:33:00,82.2,75.0,30.01,ENE,64,1.0,5.0,79,0.00,,FEW,0.00,0.00,VWS V14.01,2013-06-22 08:33:00,
2013-06-22 04:35:00,82.2,75.4,30.01,East,101,3.0,5.0,80,0.00,,FEW,0.00,0.00,VWS V14.01,2013-06-22 08:35:00,
2013-06-22 04:37:00,82.2,75.4,30.01,ENE,64,2.0,5.0,80,0.00,,FEW,0.00,0.00,VWS V14.01,2013-06-22 08:37:00,
2013-06-22 04:38:00,82.2,75.4,30.01,ENE,76,3.0,6.0,80,0.00,,FEW,0.00,0.00,VWS V14.01,2013-06-22 08:38:00,
2013-06-22 04:40:00,82.1,74.9,30.01,ENE,57,2.0,6.0,79,0.00,,FEW,0.00,0.00,VWS V14.01,2013-06-22 08:40:00,
2013-06-22 04:42:00,82.1,74.9,30.01,East,91,3.0,3.0,79,0.00,,FEW,0.00,0.00,VWS V14.01,2013-06-22 08:42:00,
2013-06-22 04:43:00,82.0,74.8,30.01,ENE,71,4.0,7.0,79,0.00,,FEW,0.00,0.00,VWS V14.01,2013-06-22 08:43:00,
2013-06-22 04:44:00,82.0,74.8,30.01,ENE,71,4.0,7.0,79,0.00,,FEW,0.00,0.00,VWS V14.01,2013-06-22 08:44:00,
2013-06-22 04:45:00,82.0,74.8,30.01,South,169,1.0,7.0,79,0.00,,FEW,0.00,0.00,VWS V14.01,2013-06-22 08:45:00,
2013-06-22 04:47:00,82.0,75.2,30.01,East,94,2.0,7.0,80,0.00,,FEW,0.00,0.00,VWS V14.01,2013-06-22 08:47:00,
2013-06-22 04:49:00,82.0,75.2,30.01,East,100,3.0,7.0,80,0.00,,FEW,0.00,0.00,VWS V14.01,2013-06-22 08:49:00,
2013-06-22 04:50:00,82.0,75.2,30.01,East,90,3.0,7.0,80,0.00,,FEW,0.00,0.00,VWS V14.01,2013-06-22 08:50:00,
2013-06-22 04:52:00,82.0,74.8,30.01,ESE,111,1.0,4.0,79,0.00,,FEW,0.00,0.00,VWS V14.01,2013-06-22 08:52:00,
2013-06-22 04:54:00,81.9,74.8,30.01,ESE,116,1.0,4.0,79,0.00,,FEW,0.00,0.00,VWS V14.01,2013-06-22 08:54:00,
2013-06-22 04:55:00,81.9,74.8,30.01,SE,134,2.0,5.0,79,0.00,,FEW,0.00,0.00,VWS V14.01,2013-06-22 08:55:00,
2013-06-22 04:57:00,81.9,74.8,30.01,NE,34,1.0,5.0,79,0.00,,FEW,0.00,0.00,VWS V14.01,2013-06-22 08:57:00,
2013-06-22 04:59:00,81.9,74.8,30.01,ENE,74,2.0,5.0,79,0.00,,FEW,0.00,0.00,VWS V14.01,2013-06-22 08:59:00,
2013-06-22 05:00:00,81.9,74.8,30.01,ENE,74,3.0,5.0,79,0.00,,FEW,0.00,0.00,VWS V14.01,2013-06-22 09:00:00,
2013-06-22 05:02:00,81.9,74.8,30.01,ENE,74,1.0,2.0,79,0.00,,FEW,0.00,0.00,VWS V14.01,2013-06-22 09:02:00,
2013-06-22 05:04:00,81.9,74.8,30.01,East,88,1.0,2.0,79,0.00,,FEW,0.00,0.00,VWS V14.01,2013-06-22 09:04:00,
2013-06-22 05:05:00,82.0,74.8,30.01,SE,144,2.0,2.0,79,0.00,,FEW,0.00,0.00,VWS V14.01,2013-06-22 09:05:00,
2013-06-22 05:07:00,82.0,74.8,30.01,East,97,0.0,3.0,79,0.00,,FEW,0.00,0.00,VWS V14.01,2013-06-22 09:07:00,
2013-06-22 05:09:00,81.9,74.8,30.01,SE,127,1.0,3.0,79,0.00,,FEW,0.00,0.00,VWS V14.01,2013-06-22 09:09:00,
2013-06-22 05:10:00,81.9,74.8,30.01,ENE,60,1.0,3.0,79,0.00,,FEW,0.00,0.00,VWS V14.01,2013-06-22 09:10:00,
2013-06-22 05:12:00,81.9,74.8,30.01,NE,54,4.0,5.0,79,0.00,,FEW,0.00,0.00,VWS V14.01,2013-06-22 09:12:00,
2013-06-22 05:14:00,81.9,75.1,30.01,ENE,70,0.0,5.0,80,0.00,,FEW,0.00,0.00,VWS V14.01,2013-06-22 09:14:00,
2013-06-22 05:16:00,81.9,75.1,30.01,ESE,103,1.0,5.0,80,0.00,,FEW,0.00,0.00,VWS V14.01,2013-06-22 09:16:00,
2013-06-22 05:18:00,81.9,75.1,30.01,East,83,3.0,5.0,80,0.00,,FEW,0.00,0.00,VWS V14.01,2013-06-22 09:18:00,
2013-06-22 05:19:00,81.9,75.1,30.01,ESE,109,0.0,6.0,80,0.00,,FEW,0.00,0.00,VWS V14.01,2013-06-22 09:19:00,
2013-06-22 05:21:00,81.9,75.1,30.01,NE,52,3.0,6.0,80,0.00,,FEW,0.00,0.00,VWS V14.01,2013-06-22 09:21:00,
2013-06-22 05:23:00,81.9,75.1,30.01,East,96,0.0,3.0,80,0.00,,FEW,0.00,0.00,VWS V14.01,2013-06-22 09:23:00,
2013-06-22 05:24:00,81.9,75.1,30.01,ENE,65,2.0,3.0,80,0.00,,FEW,0.00,0.00,VWS V14.01,2013-06-22 09:24:00,
2013-06-22 05:26:00,81.9,75.1,30.01,ENE,76,1.0,3.0,80,0.00,,FEW,0.00,0.00,VWS V14.01,2013-06-22 09:26:00,
2013-06-22 05:28:00,81.9,75.1,30.01,East,94,2.0,5.0,80,0.00,,FEW,0.00,0.00,VWS V14.01,2013-06-22 09:28:00,
2013-06-22 05:29:00,81.9,75.1,30.01,ENE,60,1.0,5.0,80,0.00,,FEW,0.00,0.00,VWS V14.01,2013-06-22 09:29:00,
2013-06-22 05:30:00,81.9,75.1,30.01,ENE,60,0.0,5.0,80,0.00,,FEW,0.00,0.00,VWS V14.01,2013-06-22 09:30:00,
2013-06-22 05:31:00,81.9,75.1,30.01,East,94,1.0,5.0,80,0.00,,FEW,0.00,0.00,VWS V14.01,2013-06-22 09:31:00,
2013-06-22 05:33:00,81.9,75.1,30.01,ESE,105,1.0,2.0,80,0.00,,FEW,0.00,0.00,VWS V14.01,2013-06-22 09:33:00,
2013-06-22 05:34:00,81.9,75.5,30.01,ENE,65,1.0,3.0,81,0.00,,FEW,0.00,0.00,VWS V14.01,2013-06-22 09:34:00,
2013-06-22 05:35:00,81.9,75.5,30.01,ENE,65,1.0,5.0,81,0.00,,FEW,0.00,0.00,VWS V14.01,2013-06-22 09:35:00,
2013-06-22 05:36:00,81.9,75.5,30.01,East,79,1.0,5.0,81,0.00,,FEW,0.00,0.00,VWS V14.01,2013-06-22 09:36:00,
2013-06-22 05:38:00,81.9,75.5,30.01,SE,140,3.0,5.0,81,0.00,,FEW,0.00,0.00,VWS V14.01,2013-06-22 09:38:00,
2013-06-22 05:39:00,81.9,75.5,30.01,ENE,76,1.0,5.0,81,0.00,,FEW,0.00,0.00,VWS V14.01,2013-06-22 09:39:00,
2013-06-22 05:40:00,81.9,75.1,30.01,ENE,63,4.0,8.0,80,0.00,,FEW,0.00,0.00,VWS V14.01,2013-06-22 09:40:00,
2013-06-22 05:41:00,81.8,75.0,30.01,ENE,78,2.0,8.0,80,0.00,,FEW,0.00,0.00,VWS V14.01,2013-06-22 09:41:00,
2013-06-22 05:43:00,81.8,75.0,30.01,ENE,61,0.0,3.0,80,0.00,,FEW,0.00,0.00,VWS V14.01,2013-06-22 09:43:00,
2013-06-22 05:44:00,81.8,75.0,30.01,East,99,1.0,4.0,80,0.00,,FEW,0.00,0.00,VWS V14.01,2013-06-22 09:44:00,
2013-06-22 05:45:00,81.9,75.1,30.01,East,93,3.0,4.0,80,0.00,,FEW,0.00,0.00,VWS V14.01,2013-06-22 09:45:00,
2013-06-22 05:46:00,81.8,75.0,30.02,East,92,0.0,4.0,80,0.00,,FEW,0.00,0.00,VWS V14.01,2013-06-22 09:46:00,
2013-06-22 05:48:00,81.9,75.5,30.02,East,93,1.0,4.0,81,0.00,,FEW,0.00,0.00,VWS V14.01,2013-06-22 09:48:00,
2013-06-22 05:49:00,81.9,75.5,30.02,East,82,0.0,4.0,81,0.00,,FEW,0.00,0.00,VWS V14.01,2013-06-22 09:49:00,
2013-06-22 05:50:00,81.9,75.5,30.02,East,90,2.0,4.0,81,0.00,,FEW,0.00,0.00,VWS V14.01,2013-06-22 09:50:00,
2013-06-22 05:51:00,81.9,75.5,30.02,East,96,2.0,4.0,81,0.00,,FEW,0.00,0.00,VWS V14.01,2013-06-22 09:51:00,
2013-06-22 05:53:00,81.9,75.5,30.02,East,86,2.0,2.0,81,0.00,,FEW,0.00,0.00,VWS V14.01,2013-06-22 09:53:00,
2013-06-22 05:55:00,81.9,75.5,30.02,East,86,1.0,2.0,81,0.00,,FEW,0.00,0.00,VWS V14.01,2013-06-22 09:55:00,
2013-06-22 05:57:00,81.9,75.5,30.02,ENE,59,2.0,6.0,81,0.00,,FEW,0.00,0.00,VWS V14.01,2013-06-22 09:57:00,
2013-06-22 05:58:00,81.9,75.5,30.02,NE,42,1.0,6.0,81,0.00,,FEW,0.00,0.00,VWS V14.01,2013-06-22 09:58:00,
2013-06-22 06:00:00,81.9,75.5,30.02,ESE,122,0.0,7.0,81,0.00,,FEW,0.00,0.00,VWS V14.01,2013-06-22 10:00:00,
2013-06-22 06:02:00,81.8,75.4,30.02,East,88,2.0,5.0,81,0.00,,FEW,0.00,0.00,VWS V14.01,2013-06-22 10:02:00,
2013-06-22 06:03:00,81.8,75.4,30.02,ESE,103,1.0,7.0,81,0.00,,FEW,0.00,0.00,VWS V14.01,2013-06-22 10:03:00,
2013-06-22 06:05:00,81.8,75.4,30.02,NE,48,2.0,7.0,81,0.00,,FEW,0.00,0.00,VWS V14.01,2013-06-22 10:05:00,
2013-06-22 06:06:00,81.8,75.4,30.02,ESE,104,1.0,7.0,81,0.00,,FEW,0.00,0.00,VWS V14.01,2013-06-22 10:06:00,
2013-06-22 06:07:00,81.8,75.4,30.02,NE,52,1.0,7.0,81,0.00,,FEW,0.00,0.00,VWS V14.01,2013-06-22 10:07:00,
2013-06-22 06:08:00,81.8,75.4,30.02,East,82,3.0,7.0,81,0.00,,FEW,0.00,0.00,VWS V14.01,2013-06-22 10:08:00,
2013-06-22 06:10:00,81.8,75.4,30.02,ESE,102,2.0,7.0,81,0.00,,FEW,0.00,0.00,VWS V14.01,2013-06-22 10:10:00,
2013-06-22 06:11:00,81.9,75.5,30.02,SE,144,0.0,7.0,81,0.00,,FEW,0.00,0.00,VWS V14.01,2013-06-22 10:11:00,
2013-06-22 06:12:00,81.9,75.5,30.02,ESE,117,3.0,4.0,81,0.00,,FEW,0.00,0.00,VWS V14.01,2013-06-22 10:12:00,
2013-06-22 06:14:00,82.0,75.6,30.02,ESE,123,1.0,7.0,81,0.00,,FEW,0.00,0.00,VWS V14.01,2013-06-22 10:14:00,
2013-06-22 06:15:00,82.0,75.6,30.02,ESE,123,1.0,7.0,81,0.00,,FEW,0.00,0.00,VWS V14.01,2013-06-22 10:15:00,
2013-06-22 06:16:00,82.0,75.6,30.02,ENE,67,1.0,7.0,81,0.00,,FEW,0.00,0.00,VWS V14.01,2013-06-22 10:16:00,
2013-06-22 06:17:00,82.0,75.6,30.02,SE,135,2.0,7.0,81,0.00,,FEW,0.00,0.00,VWS V14.01,2013-06-22 10:17:00,
2013-06-22 06:19:00,82.0,75.6,30.02,ESE,113,1.0,7.0,81,0.00,,FEW,0.00,0.00,VWS V14.01,2013-06-22 10:19:00,
2013-06-22 06:20:00,82.0,75.6,30.02,ESE,113,1.0,7.0,81,0.00,,FEW,0.00,0.00,VWS V14.01,2013-06-22 10:20:00,
2013-06-22 06:21:00,82.0,75.6,30.02,ESE,115,1.0,7.0,81,0.00,,FEW,0.00,0.00,VWS V14.01,2013-06-22 10:21:00,
2013-06-22 06:22:00,82.0,75.6,30.02,East,83,1.0,5.0,81,0.00,,FEW,0.00,0.00,VWS V14.01,2013-06-22 10:22:00,
2013-06-22 06:24:00,81.9,75.5,30.02,ESE,115,0.0,5.0,81,0.00,,FEW,0.00,0.00,VWS V14.01,2013-06-22 10:24:00,
2013-06-22 06:25:00,81.9,75.9,30.02,SE,129,0.0,5.0,82,0.00,,FEW,0.00,0.00,VWS V14.01,2013-06-22 10:25:00,
2013-06-22 06:26:00,81.9,75.9,30.02,SE,130,0.0,5.0,82,0.00,,FEW,0.00,0.00,VWS V14.01,2013-06-22 10:26:00,
2013-06-22 06:27:00,81.9,75.9,30.02,SE,130,1.0,5.0,82,0.00,,FEW,0.00,0.00,VWS V14.01,2013-06-22 10:27:00,
2013-06-22 06:29:00,81.9,75.5,30.02,SSE,154,0.0,5.0,81,0.00,,FEW,0.00,0.00,VWS V14.01,2013-06-22 10:29:00,
2013-06-22 06:30:00,81.9,75.5,30.02,ESE,121,1.0,5.0,81,0.00,,FEW,0.00,0.00,VWS V14.01,2013-06-22 10:30:00,
2013-06-22 06:31:00,81.9,75.5,30.02,SE,146,0.0,5.0,81,0.00,,FEW,0.00,0.00,VWS V14.01,2013-06-22 10:31:00,
2013-06-22 06:32:00,81.8,75.4,30.02,SE,137,1.0,1.0,81,0.00,,FEW,0.00,0.00,VWS V14.01,2013-06-22 10:32:00,
2013-06-22 06:33:00,81.8,75.8,30.02,SE,136,0.0,1.0,82,0.00,,FEW,0.00,0.00,VWS V14.01,2013-06-22 10:33:00,
2013-06-22 06:34:00,81.8,75.8,30.02,SE,138,1.0,2.0,82,0.00,,FEW,0.00,0.00,VWS V14.01,2013-06-22 10:34:00,
2013-06-22 06:35:00,81.8,75.8,30.02,SE,138,0.0,2.0,82,0.00,,FEW,0.00,0.00,VWS V14.01,2013-06-22 10:35:00,
2013-06-22 06:36:00,81.9,75.9,30.02,SE,136,1.0,2.0,82,0.00,,FEW,0.00,0.00,VWS V14.01,2013-06-22 10:36:00,
2013-06-22 06:37:00,81.8,75.8,30.02,SE,134,0.0,2.0,82,0.00,,FEW,0.00,0.00,VWS V14.01,2013-06-22 10:37:00,
2013-06-22 06:38:00,81.8,75.8,30.02,ESE,121,1.0,2.0,82,0.00,,FEW,0.00,0.00,VWS V14.01,2013-06-22 10:38:00,
2013-06-22 06:39:00,81.8,75.8,30.02,ENE,67,1.0,3.0,82,0.00,,FEW,0.00,5.00,VWS V14.01,2013-06-22 10:39:00,
2013-06-22 06:40:00,81.8,75.8,30.02,SSE,153,2.0,3.0,82,0.00,,FEW,0.00,5.00,VWS V14.01,2013-06-22 10:40:00,
2013-06-22 06:41:00,81.8,75.8,30.02,East,97,2.0,3.0,82,0.00,,FEW,0.00,9.00,VWS V14.01,2013-06-22 10:41:00,
2013-06-22 06:42:00,81.8,75.8,30.02,ENE,67,1.0,2.0,82,0.00,,FEW,0.00,9.00,VWS V14.01,2013-06-22 10:42:00,
2013-06-22 06:43:00,81.8,75.8,30.02,ENE,66,0.0,2.0,82,0.00,,FEW,0.00,9.00,VWS V14.01,2013-06-22 10:43:00,
2013-06-22 06:44:00,81.9,75.9,30.02,East,101,0.0,2.0,82,0.00,,FEW,0.00,11.00,VWS V14.01,2013-06-22 10:44:00,
2013-06-22 06:46:00,81.9,75.9,30.02,East,94,2.0,5.0,82,0.00,,FEW,0.00,11.00,VWS V14.01,2013-06-22 10:46:00,
2013-06-22 06:47:00,81.9,75.9,30.02,ESE,112,1.0,5.0,82,0.00,,FEW,0.00,12.00,VWS V14.01,2013-06-22 10:47:00,
2013-06-22 06:48:00,81.9,75.9,30.02,SE,124,2.0,5.0,82,0.00,,FEW,0.00,12.00,VWS V14.01,2013-06-22 10:48:00,
2013-06-22 06:50:00,81.9,75.9,30.02,ESE,105,3.0,6.0,82,0.00,,FEW,0.00,14.00,VWS V14.01,2013-06-22 10:50:00,
2013-06-22 06:51:00,81.9,75.9,30.02,ESE,119,5.0,7.0,82,0.00,,FEW,0.00,14.00,VWS V14.01,2013-06-22 10:51:00,
2013-06-22 06:52:00,81.9,75.5,30.02,SE,134,3.0,6.0,81,0.00,,FEW,0.00,16.00,VWS V14.01,2013-06-22 10:52:00,
2013-06-22 06:53:00,81.8,75.4,30.02,SSE,149,3.0,8.0,81,0.00,,FEW,0.00,18.00,VWS V14.01,2013-06-22 10:53:00,
2013-06-22 06:55:00,81.7,74.9,30.02,South,172,9.0,11.0,80,0.00,,FEW,0.00,21.00,VWS V14.01,2013-06-22 10:55:00,
2013-06-22 06:56:00,81.6,74.8,30.02,SSE,147,3.0,11.0,80,0.00,,FEW,0.00,21.00,VWS V14.01,2013-06-22 10:56:00,
2013-06-22 06:57:00,81.5,74.7,30.02,ESE,115,8.0,11.0,80,0.00,,FEW,0.00,23.00,VWS V14.01,2013-06-22 10:57:00,
2013-06-22 06:58:00,81.5,74.7,30.02,SE,142,8.0,11.0,80,0.00,,FEW,0.00,25.00,VWS V14.01,2013-06-22 10:58:00,
2013-06-22 07:00:00,81.4,74.6,30.02,SE,138,6.0,11.0,80,0.00,,FEW,0.00,32.00,VWS V14.01,2013-06-22 11:00:00,
2013-06-22 07:01:00,81.4,74.6,30.03,SSE,155,9.0,11.0,80,0.00,,FEW,0.00,33.00,VWS V14.01,2013-06-22 11:01:00,
2013-06-22 07:02:00,81.4,74.6,30.03,SE,130,9.0,9.0,80,0.00,,FEW,0.00,40.00,VWS V14.01,2013-06-22 11:02:00,
2013-06-22 07:03:00,81.4,74.6,30.03,SE,144,6.0,9.0,80,0.00,,FEW,0.00,51.00,VWS V14.01,2013-06-22 11:03:00,
2013-06-22 07:05:00,81.4,74.3,30.03,SE,126,7.0,9.0,79,0.00,,FEW,0.00,65.00,VWS V14.01,2013-06-22 11:05:00,
2013-06-22 07:06:00,81.4,74.3,30.03,SE,142,3.0,9.0,79,0.00,,FEW,0.00,69.00,VWS V14.01,2013-06-22 11:06:00,
2013-06-22 07:07:00,81.3,74.2,30.03,SSE,163,8.0,9.0,79,0.00,,FEW,0.00,60.00,VWS V14.01,2013-06-22 11:07:00,
2013-06-22 07:08:00,81.3,74.2,30.03,SE,133,4.0,9.0,79,0.00,,FEW,0.00,60.00,VWS V14.01,2013-06-22 11:08:00,
2013-06-22 07:10:00,81.4,74.3,30.03,SSE,159,3.0,9.0,79,0.00,,FEW,0.00,37.00,VWS V14.01,2013-06-22 11:10:00,
2013-06-22 07:11:00,81.4,74.3,30.03,SE,139,3.0,9.0,79,0.00,,FEW,0.00,39.00,VWS V14.01,2013-06-22 11:11:00,
2013-06-22 07:12:00,81.4,74.3,30.03,SE,127,2.0,7.0,79,0.00,,FEW,0.00,35.00,VWS V14.01,2013-06-22 11:12:00,
2013-06-22 07:13:00,81.4,74.3,30.03,South,182,4.0,8.0,79,0.00,,FEW,0.00,32.00,VWS V14.01,2013-06-22 11:13:00,
2013-06-22 07:14:00,81.4,74.6,30.03,SSE,162,6.0,8.0,80,0.00,,FEW,0.00,32.00,VWS V14.01,2013-06-22 11:14:00,
2013-06-22 07:15:00,81.4,74.6,30.03,SE,137,2.0,8.0,80,0.00,,FEW,0.00,33.00,VWS V14.01,2013-06-22 11:15:00,
2013-06-22 07:16:00,81.4,74.6,30.03,SE,146,1.0,8.0,80,0.00,,FEW,0.00,33.00,VWS V14.01,2013-06-22 11:16:00,
2013-06-22 07:17:00,81.4,74.6,30.03,SE,143,6.0,9.0,80,0.00,,FEW,0.00,32.00,VWS V14.01,2013-06-22 11:17:00,
2013-06-22 07:18:00,81.4,74.6,30.03,SE,125,6.0,9.0,80,0.00,,FEW,0.00,32.00,VWS V14.01,2013-06-22 11:18:00,
2013-06-22 07:19:00,81.3,74.5,30.03,SE,130,4.0,9.0,80,0.00,,FEW,0.00,32.00,VWS V14.01,2013-06-22 11:19:00,
2013-06-22 07:20:00,81.2,74.1,30.03,South,171,5.0,9.0,79,0.00,,FEW,0.00,37.00,VWS V14.01,2013-06-22 11:20:00,
2013-06-22 07:21:00,81.2,74.1,30.03,South,185,3.0,9.0,79,0.00,,FEW,0.00,40.00,VWS V14.01,2013-06-22 11:21:00,
2013-06-22 07:23:00,81.2,74.1,30.03,SE,124,10.0,10.0,79,0.00,,FEW,0.00,47.00,VWS V14.01,2013-06-22 11:23:00,
2013-06-22 07:24:00,81.2,74.4,30.03,ESE,123,5.0,10.0,80,0.00,,FEW,0.00,54.00,VWS V14.01,2013-06-22 11:24:00,
2013-06-22 07:26:00,81.4,75.4,30.03,SSE,155,3.0,10.0,82,0.02,,FEW,0.02,81.00,VWS V14.01,2013-06-22 11:26:00,
2013-06-22 07:28:00,81.4,75.4,30.03,SE,130,1.0,10.0,82,0.03,,FEW,0.03,90.00,VWS V14.01,2013-06-22 11:28:00,
2013-06-22 07:29:00,81.4,75.7,30.03,SSE,154,4.0,10.0,83,0.03,,FEW,0.03,84.00,VWS V14.01,2013-06-22 11:29:00,
2013-06-22 07:31:00,81.3,75.7,30.04,SSE,149,5.0,10.0,83,0.03,,FEW,0.03,70.00,VWS V14.01,2013-06-22 11:31:00,
2013-06-22 07:32:00,81.2,75.6,30.04,South,178,1.0,3.0,83,0.03,,FEW,0.03,67.00,VWS V14.01,2013-06-22 11:32:00,
2013-06-22 07:33:00,81.1,75.4,30.04,SSE,167,1.0,3.0,83,0.03,,FEW,0.03,67.00,VWS V14.01,2013-06-22 11:33:00,
2013-06-22 07:34:00,81.1,75.4,30.04,SSE,167,0.0,3.0,83,0.03,,FEW,0.03,67.00,VWS V14.01,2013-06-22 11:34:00,
2013-06-22 07:36:00,81.0,75.7,30.04,South,186,0.0,4.0,84,0.03,,FEW,0.03,79.00,VWS V14.01,2013-06-22 11:36:00,
2013-06-22 07:37:00,81.0,75.7,30.04,SE,127,2.0,4.0,84,0.03,,FEW,0.03,88.00,VWS V14.01,2013-06-22 11:37:00,
2013-06-22 07:38:00,80.9,75.6,30.04,SSE,152,2.0,4.0,84,0.03,,FEW,0.03,93.00,VWS V14.01,2013-06-22 11:38:00,
2013-06-22 07:39:00,80.9,75.6,30.04,SSW,199,2.0,4.0,84,0.03,,FEW,0.03,98.00,VWS V14.01,2013-06-22 11:39:00,
2013-06-22 07:41:00,80.8,75.9,30.04,SE,143,0.0,4.0,85,0.03,,FEW,0.03,118.00,VWS V14.01,2013-06-22 11:41:00,
2013-06-22 07:42:00,80.8,75.9,30.04,SE,139,3.0,4.0,85,0.03,,FEW,0.03,120.00,VWS V14.01,2013-06-22 11:42:00,
2013-06-22 07:43:00,80.8,75.9,30.04,SE,137,2.0,4.0,85,0.03,,FEW,0.03,109.00,VWS V14.01,2013-06-22 11:43:00,
2013-06-22 07:44:00,80.7,75.8,30.04,SE,130,0.0,4.0,85,0.03,,FEW,0.03,102.00,VWS V14.01,2013-06-22 11:44:00,
2013-06-22 07:46:00,80.7,75.8,30.03,SE,142,1.0,4.0,85,0.03,,FEW,0.03,93.00,VWS V14.01,2013-06-22 11:46:00,
2013-06-22 07:47:00,80.6,75.7,30.03,SE,141,1.0,4.0,85,0.03,,FEW,0.03,93.00,VWS V14.01,2013-06-22 11:47:00,
2013-06-22 07:48:00,80.7,76.1,30.03,SE,142,0.0,4.0,86,0.03,,FEW,0.03,95.00,VWS V14.01,2013-06-22 11:48:00,
2013-06-22 07:49:00,80.6,76.0,30.03,SE,141,0.0,4.0,86,0.03,,FEW,0.03,95.00,VWS V14.01,2013-06-22 11:49:00,
2013-06-22 07:51:00,80.7,76.1,30.03,South,179,0.0,4.0,86,0.03,,FEW,0.03,123.00,VWS V14.01,2013-06-22 11:51:00,
2013-06-22 07:53:00,80.7,76.1,30.03,South,179,1.0,1.0,86,0.03,,FEW,0.03,142.00,VWS V14.01,2013-06-22 11:53:00,
2013-06-22 07:54:00,80.8,76.2,30.03,South,179,1.0,1.0,86,0.03,,FEW,0.03,132.00,VWS V14.01,2013-06-22 11:54:00,
2013-06-22 07:56:00,81.0,76.8,30.03,SE,135,3.0,3.0,87,0.03,,FEW,0.03,223.00,VWS V14.01,2013-06-22 11:56:00,
2013-06-22 07:58:00,81.1,76.9,30.03,SE,138,1.0,4.0,87,0.03,,FEW,0.03,257.00,VWS V14.01,2013-06-22 11:58:00,
2013-06-22 07:59:00,81.2,76.6,30.03,SW,225,1.0,5.0,86,0.03,,FEW,0.03,294.00,VWS V14.01,2013-06-22 11:59:00,
2013-06-22 08:00:00,81.2,76.6,30.03,SW,225,1.0,5.0,86,0.03,,FEW,0.03,294.00,VWS V14.01,2013-06-22 12:00:00,
2013-06-22 08:01:00,81.6,77.0,30.04,South,173,1.0,5.0,86,0.03,,FEW,0.03,308.00,VWS V14.01,2013-06-22 12:01:00,
2013-06-22 08:03:00,81.9,77.3,30.04,SSE,157,1.0,1.0,86,0.03,,FEW,0.03,278.00,VWS V14.01,2013-06-22 12:03:00,
2013-06-22 08:04:00,82.0,77.1,30.04,SE,124,2.0,3.0,85,0.03,,FEW,0.03,278.00,VWS V14.01,2013-06-22 12:04:00,
2013-06-22 08:05:00,82.2,77.2,30.04,ENE,67,0.0,3.0,85,0.03,,FEW,0.03,255.00,VWS V14.01,2013-06-22 12:05:00,
2013-06-22 08:07:00,82.7,77.7,30.04,East,83,1.0,3.0,85,0.03,,FEW,0.03,234.00,VWS V14.01,2013-06-22 12:07:00,
2013-06-22 08:08:00,82.9,77.9,30.04,ENE,67,2.0,3.0,85,0.03,,FEW,0.03,230.00,VWS V14.01,2013-06-22 12:08:00,
2013-06-22 08:09:00,83.0,78.0,30.04,East,79,2.0,4.0,85,0.03,,FEW,0.03,236.00,VWS V14.01,2013-06-22 12:09:00,
2013-06-22 08:10:00,83.0,77.7,30.04,ENE,58,3.0,5.0,84,0.03,,FEW,0.03,236.00,VWS V14.01,2013-06-22 12:10:00,
2013-06-22 08:12:00,83.2,77.5,30.04,ENE,75,2.0,2.0,83,0.03,,FEW,0.03,232.00,VWS V14.01,2013-06-22 12:12:00,
2013-06-22 08:13:00,83.2,77.5,30.04,SSE,148,2.0,5.0,83,0.03,,FEW,0.03,232.00,VWS V14.01,2013-06-22 12:13:00,
2013-06-22 08:14:00,83.3,77.6,30.04,ENE,67,3.0,5.0,83,0.03,,FEW,0.03,232.00,VWS V14.01,2013-06-22 12:14:00,
2013-06-22 08:15:00,83.3,77.2,30.04,East,82,0.0,5.0,82,0.03,,FEW,0.03,181.00,VWS V14.01,2013-06-22 12:15:00,
2013-06-22 08:17:00,83.5,77.8,30.05,East,89,3.0,5.0,83,0.03,,FEW,0.03,237.00,VWS V14.01,2013-06-22 12:17:00,
2013-06-22 08:18:00,83.5,77.4,30.05,ENE,69,3.0,5.0,82,0.03,,FEW,0.03,237.00,VWS V14.01,2013-06-22 12:18:00,
2013-06-22 08:20:00,83.5,77.1,30.05,ENE,65,2.0,6.0,81,0.03,,FEW,0.03,253.00,VWS V14.01,2013-06-22 12:20:00,
2013-06-22 08:22:00,83.6,77.2,30.05,ENE,74,5.0,5.0,81,0.03,,FEW,0.03,276.00,VWS V14.01,2013-06-22 12:22:00,
2013-06-22 08:23:00,83.6,77.2,30.05,East,88,2.0,5.0,81,0.03,,FEW,0.03,278.00,VWS V14.01,2013-06-22 12:23:00,
2013-06-22 08:25:00,83.8,77.3,30.05,ENE,72,2.0,5.0,81,0.03,,FEW,0.03,292.00,VWS V14.01,2013-06-22 12:25:00,
2013-06-22 08:27:00,84.0,77.5,30.05,ENE,61,3.0,7.0,81,0.03,,FEW,0.03,285.00,VWS V14.01,2013-06-22 12:27:00,
2013-06-22 08:28:00,84.1,77.3,30.05,SE,124,1.0,7.0,80,0.03,,FEW,0.03,309.00,VWS V14.01,2013-06-22 12:28:00,
2013-06-22 08:30:00,84.2,77.4,30.05,East,86,2.0,7.0,80,0.03,,FEW,0.03,330.00,VWS V14.01,2013-06-22 12:30:00,
2013-06-22 08:31:00,84.3,77.5,30.05,East,86,0.0,7.0,80,0.03,,FEW,0.03,255.00,VWS V14.01,2013-06-22 12:31:00,
2013-06-22 08:33:00,84.4,77.6,30.05,East,84,2.0,5.0,80,0.00,,FEW,0.03,163.00,VWS V14.01,2013-06-22 12:33:00,
2013-06-22 08:34:00,84.5,77.7,30.05,ENE,69,3.0,5.0,80,0.00,,FEW,0.03,367.00,VWS V14.01,2013-06-22 12:34:00,
2013-06-22 08:35:00,84.6,77.8,30.05,East,92,1.0,5.0,80,0.00,,FEW,0.03,362.00,VWS V14.01,2013-06-22 12:35:00,
2013-06-22 08:36:00,84.6,77.8,30.05,SE,132,1.0,5.0,80,0.00,,FEW,0.03,373.00,VWS V14.01,2013-06-22 12:36:00,
2013-06-22 08:38:00,84.8,77.9,30.05,East,84,2.0,5.0,80,0.00,,FEW,0.03,385.00,VWS V14.01,2013-06-22 12:38:00,
2013-06-22 08:39:00,84.9,78.0,30.05,ESE,117,3.0,5.0,80,0.00,,FEW,0.03,362.00,VWS V14.01,2013-06-22 12:39:00,
2013-06-22 08:40:00,85.0,77.8,30.05,East,80,1.0,5.0,79,0.00,,FEW,0.03,359.00,VWS V14.01,2013-06-22 12:40:00,
2013-06-22 08:41:00,85.0,77.8,30.05,East,80,1.0,5.0,79,0.00,,FEW,0.03,359.00,VWS V14.01,2013-06-22 12:41:00,
2013-06-22 08:43:00,85.0,77.0,30.05,ESE,112,1.0,4.0,77,0.00,,FEW,0.03,359.00,VWS V14.01,2013-06-22 12:43:00,
2013-06-22 08:44:00,85.1,77.1,30.05,NE,35,2.0,4.0,77,0.00,,FEW,0.03,378.00,VWS V14.01,2013-06-22 12:44:00,
2013-06-22 08:45:00,85.1,77.1,30.05,SE,124,2.0,5.0,77,0.00,,FEW,0.03,388.00,VWS V14.01,2013-06-22 12:45:00,
2013-06-22 08:46:00,85.2,77.2,30.05,NE,51,4.0,5.0,77,0.00,,FEW,0.03,388.00,VWS V14.01,2013-06-22 12:46:00,
2013-06-22 08:48:00,85.4,77.4,30.05,East,88,2.0,5.0,77,0.00,,FEW,0.03,396.00,VWS V14.01,2013-06-22 12:48:00,
2013-06-22 08:50:00,85.4,77.4,30.05,ENE,62,2.0,5.0,77,0.00,,FEW,0.03,132.00,VWS V14.01,2013-06-22 12:50:00,
2013-06-22 08:51:00,85.5,77.5,30.05,East,80,0.0,5.0,77,0.00,,FEW,0.03,132.00,VWS V14.01,2013-06-22 12:51:00,
2013-06-22 08:53:00,85.6,77.6,30.05,East,84,1.0,3.0,77,0.00,,FEW,0.03,424.00,VWS V14.01,2013-06-22 12:53:00,
2013-06-22 08:55:00,85.7,77.7,30.05,East,79,3.0,8.0,77,0.00,,FEW,0.03,403.00,VWS V14.01,2013-06-22 12:55:00,
2013-06-22 08:56:00,85.7,77.7,30.05,NE,43,1.0,8.0,77,0.00,,FEW,0.03,396.00,VWS V14.01,2013-06-22 12:56:00,
2013-06-22 08:58:00,85.8,77.4,30.05,ESE,111,3.0,8.0,76,0.00,,FEW,0.03,392.00,VWS V14.01,2013-06-22 12:58:00,
2013-06-22 09:00:00,85.9,77.1,30.05,ESE,123,1.0,8.0,75,0.00,,FEW,0.03,394.00,VWS V14.01,2013-06-22 13:00:00,
2013-06-22 09:01:00,85.9,77.1,30.05,ENE,60,2.0,8.0,75,0.00,,FEW,0.03,403.00,VWS V14.01,2013-06-22 13:01:00,
2013-06-22 09:03:00,85.9,76.7,30.05,ENE,65,2.0,3.0,74,0.00,,FEW,0.03,408.00,VWS V14.01,2013-06-22 13:03:00,
2013-06-22 09:05:00,86.0,76.8,30.05,SE,128,1.0,4.0,74,0.00,,FEW,0.03,413.00,VWS V14.01,2013-06-22 13:05:00,
2013-06-22 09:06:00,86.1,76.8,30.05,ESE,123,2.0,4.0,74,0.00,,FEW,0.03,418.00,VWS V14.01,2013-06-22 13:06:00,
2013-06-22 09:07:00,86.1,76.8,30.05,SE,125,2.0,7.0,74,0.00,,FEW,0.03,415.00,VWS V14.01,2013-06-22 13:07:00,
2013-06-22 09:08:00,86.2,76.9,30.05,SE,134,3.0,7.0,74,0.00,,FEW,0.03,424.00,VWS V14.01,2013-06-22 13:08:00,
2013-06-22 09:10:00,86.2,76.5,30.05,ESE,115,2.0,7.0,73,0.00,,FEW,0.03,427.00,VWS V14.01,2013-06-22 13:10:00,
2013-06-22 09:11:00,86.2,76.5,30.05,SE,139,1.0,7.0,73,0.00,,FEW,0.03,432.00,VWS V14.01,2013-06-22 13:11:00,
2013-06-22 09:12:00,86.2,76.5,30.05,SE,135,3.0,6.0,73,0.00,,FEW,0.03,432.00,VWS V14.01,2013-06-22 13:12:00,
2013-06-22 09:13:00,86.3,77.0,30.05,ESE,115,3.0,6.0,74,0.00,,FEW,0.03,439.00,VWS V14.01,2013-06-22 13:13:00,
2013-06-22 09:15:00,86.4,76.7,30.05,ENE,71,3.0,6.0,73,0.00,,FEW,0.03,446.00,VWS V14.01,2013-06-22 13:15:00,
2013-06-22 09:16:00,86.4,76.7,30.05,East,91,3.0,6.0,73,0.00,,FEW,0.03,452.00,VWS V14.01,2013-06-22 13:16:00,
2013-06-22 09:17:00,86.4,76.7,30.05,East,91,1.0,6.0,73,0.00,,FEW,0.03,459.00,VWS V14.01,2013-06-22 13:17:00,
2013-06-22 09:18:00,86.5,76.8,30.05,SE,128,0.0,6.0,73,0.00,,FEW,0.03,464.00,VWS V14.01,2013-06-22 13:18:00,
2013-06-22 09:21:00,86.6,76.9,30.05,ENE,65,0.0,6.0,73,0.00,,FEW,0.03,471.00,VWS V14.01,2013-06-22 13:21:00,
2013-06-22 09:22:00,86.7,77.0,30.05,East,81,3.0,3.0,73,0.00,,FEW,0.03,475.00,VWS V14.01,2013-06-22 13:22:00,
2013-06-22 09:24:00,86.8,76.7,30.05,ESE,107,1.0,3.0,72,0.00,,FEW,0.03,475.00,VWS V14.01,2013-06-22 13:24:00,
2013-06-22 09:26:00,86.9,76.8,30.05,SE,125,3.0,8.0,72,0.00,,FEW,0.03,483.00,VWS V14.01,2013-06-22 13:26:00,
2013-06-22 09:27:00,86.9,76.8,30.05,SE,126,0.0,8.0,72,0.00,,FEW,0.03,494.00,VWS V14.01,2013-06-22 13:27:00,
2013-06-22 09:29:00,86.9,76.8,30.05,East,101,1.0,8.0,72,0.00,,FEW,0.03,445.00,VWS V14.01,2013-06-22 13:29:00,
2013-06-22 09:31:00,87.0,76.9,30.05,ESE,115,0.0,8.0,72,0.00,,FEW,0.03,541.00,VWS V14.01,2013-06-22 13:31:00,
2013-06-22 09:32:00,87.0,76.9,30.05,ESE,111,2.0,8.0,72,0.00,,FEW,0.03,541.00,VWS V14.01,2013-06-22 13:32:00,
2013-06-22 09:34:00,87.1,77.4,30.05,East,101,1.0,4.0,73,0.00,,FEW,0.03,550.00,VWS V14.01,2013-06-22 13:34:00,
2013-06-22 09:36:00,87.3,77.2,30.05,SE,132,3.0,5.0,72,0.00,,FEW,0.03,550.00,VWS V14.01,2013-06-22 13:36:00,
2013-06-22 09:37:00,87.3,77.2,30.05,SE,132,1.0,5.0,72,0.00,,FEW,0.03,554.00,VWS V14.01,2013-06-22 13:37:00,
2013-06-22 09:39:00,87.5,77.4,30.05,ESE,122,2.0,5.0,72,0.00,,FEW,0.03,547.00,VWS V14.01,2013-06-22 13:39:00,
2013-06-22 09:42:00,87.7,77.1,30.05,East,94,2.0,2.0,71,0.00,,FEW,0.03,547.00,VWS V14.01,2013-06-22 13:42:00,
2013-06-22 09:44:00,87.9,77.3,30.05,ENE,63,2.0,7.0,71,0.00,,FEW,0.03,559.00,VWS V14.01,2013-06-22 13:44:00,
2013-06-22 09:47:00,88.2,77.6,30.06,East,96,1.0,7.0,71,0.00,,FEW,0.03,571.00,VWS V14.01,2013-06-22 13:47:00,
2013-06-22 09:48:00,88.3,77.3,30.06,East,82,0.0,7.0,70,0.00,,FEW,0.03,577.00,VWS V14.01,2013-06-22 13:48:00,
2013-06-22 09:49:00,88.4,77.4,30.06,SE,124,2.0,7.0,70,0.00,,FEW,0.03,580.00,VWS V14.01,2013-06-22 13:49:00,
2013-06-22 09:52:00,88.6,77.6,30.06,NE,43,2.0,2.0,70,0.00,,FEW,0.03,573.00,VWS V14.01,2013-06-22 13:52:00,
2013-06-22 09:53:00,88.6,77.1,30.06,ENE,73,7.0,7.0,69,0.00,,FEW,0.03,573.00,VWS V14.01,2013-06-22 13:53:00,
2013-06-22 09:54:00,88.6,77.1,30.06,ESE,116,2.0,7.0,69,0.00,,FEW,0.03,575.00,VWS V14.01,2013-06-22 13:54:00,
2013-06-22 09:57:00,88.5,76.6,30.06,ESE,107,0.0,7.0,68,0.00,,FEW,0.03,580.00,VWS V14.01,2013-06-22 13:57:00,
2013-06-22 09:58:00,88.6,76.7,30.06,East,81,5.0,7.0,68,0.00,,FEW,0.03,585.00,VWS V14.01,2013-06-22 13:58:00,
2013-06-22 09:59:00,88.6,76.7,30.06,ENE,68,1.0,7.0,68,0.00,,FEW,0.03,589.00,VWS V14.01,2013-06-22 13:59:00,
2013-06-22 10:00:00,88.7,76.8,30.06,ESE,109,2.0,7.0,68,0.00,,FEW,0.03,592.00,VWS V14.01,2013-06-22 14:00:00,
2013-06-22 10:02:00,88.8,76.9,30.06,ESE,123,1.0,3.0,68,0.00,,FEW,0.03,596.00,VWS V14.01,2013-06-22 14:02:00,
2013-06-22 10:03:00,88.9,77.0,30.06,ENE,64,2.0,5.0,68,0.00,,FEW,0.03,599.00,VWS V14.01,2013-06-22 14:03:00,
2013-06-22 10:04:00,88.9,77.4,30.06,ESE,120,9.0,9.0,69,0.00,,FEW,0.03,605.00,VWS V14.01,2013-06-22 14:04:00,
2013-06-22 10:05:00,89.0,77.5,30.06,ESE,116,3.0,9.0,69,0.00,,FEW,0.03,608.00,VWS V14.01,2013-06-22 14:05:00,
2013-06-22 10:07:00,89.2,77.3,30.06,East,94,0.0,9.0,68,0.00,,FEW,0.03,612.00,VWS V14.01,2013-06-22 14:07:00,
2013-06-22 10:08:00,89.2,77.3,30.06,East,97,1.0,9.0,68,0.00,,FEW,0.03,615.00,VWS V14.01,2013-06-22 14:08:00,
2013-06-22 10:09:00,89.3,77.4,30.06,ESE,108,1.0,9.0,68,0.00,,FEW,0.03,619.00,VWS V14.01,2013-06-22 14:09:00,
2013-06-22 10:10:00,89.3,77.4,30.06,East,88,2.0,9.0,68,0.00,,FEW,0.03,619.00,VWS V14.01,2013-06-22 14:10:00,
2013-06-22 10:12:00,89.5,77.1,30.06,East,83,1.0,1.0,67,0.00,,FEW,0.03,629.00,VWS V14.01,2013-06-22 14:12:00,
2013-06-22 10:13:00,89.5,77.6,30.06,ESE,113,1.0,5.0,68,0.00,,FEW,0.03,631.00,VWS V14.01,2013-06-22 14:13:00,
2013-06-22 10:14:00,89.6,77.6,30.06,East,89,2.0,5.0,68,0.00,,FEW,0.03,629.00,VWS V14.01,2013-06-22 14:14:00,
2013-06-22 10:15:00,89.7,77.3,30.06,ENE,66,1.0,5.0,67,0.00,,FEW,0.03,635.00,VWS V14.01,2013-06-22 14:15:00,
2013-06-22 10:17:00,89.7,76.8,30.06,ENE,69,0.0,6.0,66,0.00,,FEW,0.03,642.00,VWS V14.01,2013-06-22 14:17:00,
2013-06-22 10:18:00,89.8,77.4,30.06,ENE,58,1.0,6.0,67,0.00,,FEW,0.03,647.00,VWS V14.01,2013-06-22 14:18:00,
2013-06-22 10:19:00,89.8,77.4,30.06,ENE,59,1.0,6.0,67,0.00,,FEW,0.03,649.00,VWS V14.01,2013-06-22 14:19:00,
2013-06-22 10:20:00,89.9,77.0,30.06,NE,56,2.0,6.0,66,0.00,,FEW,0.03,650.00,VWS V14.01,2013-06-22 14:20:00,
2013-06-22 10:23:00,90.1,77.2,30.06,East,84,5.0,5.0,66,0.00,,FEW,0.03,659.00,VWS V14.01,2013-06-22 14:23:00,
2013-06-22 10:24:00,90.2,77.3,30.06,ENE,58,5.0,5.0,66,0.00,,FEW,0.03,663.00,VWS V14.01,2013-06-22 14:24:00,
2013-06-22 10:25:00,90.2,76.8,30.06,ENE,60,1.0,5.0,65,0.00,,FEW,0.03,668.00,VWS V14.01,2013-06-22 14:25:00,
2013-06-22 10:28:00,90.4,77.0,30.06,East,94,5.0,5.0,65,0.00,,FEW,0.03,675.00,VWS V14.01,2013-06-22 14:28:00,
2013-06-22 10:29:00,90.3,76.5,30.06,ESE,116,1.0,5.0,64,0.00,,FEW,0.03,679.00,VWS V14.01,2013-06-22 14:29:00,
2013-06-22 10:30:00,90.3,76.5,30.06,ESE,119,1.0,5.0,64,0.00,,FEW,0.03,684.00,VWS V14.01,2013-06-22 14:30:00,
2013-06-22 10:33:00,90.4,77.0,30.06,SE,136,3.0,3.0,65,0.00,,FEW,0.03,694.00,VWS V14.01,2013-06-22 14:33:00,
2013-06-22 10:34:00,90.4,77.0,30.06,ENE,74,2.0,3.0,65,0.00,,FEW,0.03,694.00,VWS V14.01,2013-06-22 14:34:00,
2013-06-22 10:35:00,90.4,77.0,30.06,SE,128,2.0,3.0,65,0.00,,FEW,0.03,693.00,VWS V14.01,2013-06-22 14:35:00,
2013-06-22 10:38:00,90.6,77.2,30.06,NE,55,1.0,4.0,65,0.00,,FEW,0.03,703.00,VWS V14.01,2013-06-22 14:38:00,
2013-06-22 10:39:00,90.7,77.8,30.06,NE,55,0.0,4.0,66,0.00,,FEW,0.03,703.00,VWS V14.01,2013-06-22 14:39:00,
2013-06-22 10:40:00,90.8,77.4,30.06,NNE,29,2.0,5.0,65,0.00,,FEW,0.03,701.00,VWS V14.01,2013-06-22 14:40:00,
2013-06-22 10:43:00,90.8,76.5,30.06,ENE,57,1.0,5.0,63,0.00,,FEW,0.03,714.00,VWS V14.01,2013-06-22 14:43:00,
2013-06-22 10:44:00,90.8,76.5,30.06,SE,130,4.0,5.0,63,0.00,,FEW,0.03,715.00,VWS V14.01,2013-06-22 14:44:00,
2013-06-22 10:45:00,90.9,77.0,30.06,East,89,2.0,5.0,64,0.00,,FEW,0.03,717.00,VWS V14.01,2013-06-22 14:45:00,
2013-06-22 10:46:00,90.9,77.0,30.06,East,89,2.0,5.0,64,0.00,,FEW,0.03,717.00,VWS V14.01,2013-06-22 14:46:00,
2013-06-22 10:48:00,91.0,76.7,30.06,ENE,76,1.0,5.0,63,0.00,,FEW,0.03,728.00,VWS V14.01,2013-06-22 14:48:00,
2013-06-22 10:49:00,91.0,77.1,30.06,ESE,109,3.0,5.0,64,0.00,,FEW,0.03,728.00,VWS V14.01,2013-06-22 14:49:00,
2013-06-22 10:51:00,90.9,76.6,30.06,East,98,1.0,6.0,63,0.00,,FEW,0.03,735.00,VWS V14.01,2013-06-22 14:51:00,
2013-06-22 10:53:00,90.8,76.9,30.06,ENE,65,2.0,7.0,64,0.00,,FEW,0.03,744.00,VWS V14.01,2013-06-22 14:53:00,
2013-06-22 10:54:00,90.7,76.8,30.06,ENE,77,0.0,7.0,64,0.00,,FEW,0.03,745.00,VWS V14.01,2013-06-22 14:54:00,
2013-06-22 10:56:00,90.6,77.2,30.06,ESE,112,1.0,7.0,65,0.00,,FEW,0.03,680.00,VWS V14.01,2013-06-22 14:56:00,
2013-06-22 10:59:00,90.7,77.8,30.06,ESE,105,2.0,7.0,66,0.00,,FEW,0.03,761.00,VWS V14.01,2013-06-22 14:59:00,
2013-06-22 11:01:00,90.7,77.3,30.07,East,82,1.0,7.0,65,0.00,,FEW,0.03,772.00,VWS V14.01,2013-06-22 15:01:00,
2013-06-22 11:04:00,90.7,77.8,30.07,SE,142,4.0,5.0,66,0.00,,FEW,0.03,793.00,VWS V14.01,2013-06-22 15:04:00,
2013-06-22 11:07:00,90.5,77.6,30.07,ENE,57,1.0,5.0,66,0.00,,FEW,0.03,807.00,VWS V14.01,2013-06-22 15:07:00,
2013-06-22 11:08:00,90.4,77.5,30.07,East,97,2.0,5.0,66,0.00,,FEW,0.03,814.00,VWS V14.01,2013-06-22 15:08:00,
2013-06-22 11:09:00,90.4,77.5,30.07,SE,134,7.0,7.0,66,0.00,,FEW,0.03,814.00,VWS V14.01,2013-06-22 15:09:00,
2013-06-22 11:12:00,90.6,77.7,30.07,ESE,121,2.0,4.0,66,0.00,,FEW,0.03,800.00,VWS V14.01,2013-06-22 15:12:00,
2013-06-22 11:13:00,90.6,77.7,30.07,East,88,2.0,5.0,66,0.00,,FEW,0.03,800.00,VWS V14.01,2013-06-22 15:13:00,
2013-06-22 11:14:00,90.5,76.7,30.07,ESE,115,2.0,5.0,64,0.00,,FEW,0.03,809.00,VWS V14.01,2013-06-22 15:14:00,
2013-06-22 11:17:00,90.6,78.1,30.07,SE,130,4.0,6.0,67,0.00,,FEW,0.03,884.00,VWS V14.01,2013-06-22 15:17:00,
2013-06-22 11:18:00,90.6,78.1,30.07,ESE,113,1.0,6.0,67,0.00,,FEW,0.03,847.00,VWS V14.01,2013-06-22 15:18:00,
2013-06-22 11:19:00,90.7,77.8,30.07,East,84,0.0,6.0,66,0.00,,FEW,0.03,851.00,VWS V14.01,2013-06-22 15:19:00,
2013-06-22 11:22:00,90.7,76.4,30.07,SE,139,4.0,5.0,63,0.00,,FEW,0.03,408.00,VWS V14.01,2013-06-22 15:22:00,
2013-06-22 11:23:00,90.7,76.8,30.07,SE,126,0.0,5.0,64,0.00,,FEW,0.03,408.00,VWS V14.01,2013-06-22 15:23:00,
2013-06-22 11:24:00,90.6,77.2,30.07,ESE,116,7.0,7.0,65,0.00,,FEW,0.03,830.00,VWS V14.01,2013-06-22 15:24:00,
2013-06-22 11:25:00,90.6,76.8,30.07,ESE,111,3.0,7.0,64,0.00,,FEW,0.03,830.00,VWS V14.01,2013-06-22 15:25:00,
2013-06-22 11:27:00,90.2,76.4,30.07,ESE,114,1.0,7.0,64,0.00,,FEW,0.03,853.00,VWS V14.01,2013-06-22 15:27:00,
2013-06-22 11:28:00,90.1,76.3,30.07,ESE,107,2.0,7.0,64,0.00,,FEW,0.03,854.00,VWS V14.01,2013-06-22 15:28:00,
2013-06-22 11:30:00,89.9,76.6,30.07,NE,55,2.0,7.0,65,0.00,,FEW,0.03,856.00,VWS V14.01,2013-06-22 15:30:00,
2013-06-22 11:32:00,90.0,76.7,30.07,East,86,3.0,5.0,65,0.00,,FEW,0.03,853.00,VWS V14.01,2013-06-22 15:32:00,
2013-06-22 11:33:00,90.1,77.2,30.07,ENE,78,0.0,7.0,66,0.00,,FEW,0.03,854.00,VWS V14.01,2013-06-22 15:33:00,
2013-06-22 11:35:00,90.0,77.1,30.07,ENE,78,4.0,7.0,66,0.00,,FEW,0.03,853.00,VWS V14.01,2013-06-22 15:35:00,
2013-06-22 11:37:00,89.5,76.7,30.07,ENE,63,1.0,7.0,66,0.00,,FEW,0.03,849.00,VWS V14.01,2013-06-22 15:37:00,
2013-06-22 11:38:00,89.4,77.0,30.07,East,85,3.0,8.0,67,0.00,,FEW,0.03,847.00,VWS V14.01,2013-06-22 15:38:00,
2013-06-22 11:39:00,89.4,77.0,30.07,ENE,76,1.0,8.0,67,0.00,,FEW,0.03,846.00,VWS V14.01,2013-06-22 15:39:00,
2013-06-22 11:40:00,89.2,76.4,30.07,ESE,115,2.0,8.0,66,0.00,,FEW,0.03,846.00,VWS V14.01,2013-06-22 15:40:00,
2013-06-22 11:42:00,89.3,76.9,30.07,East,90,1.0,4.0,67,0.00,,FEW,0.03,847.00,VWS V14.01,2013-06-22 15:42:00,
2013-06-22 11:43:00,89.2,76.4,30.07,ENE,65,3.0,5.0,66,0.00,,FEW,0.03,849.00,VWS V14.01,2013-06-22 15:43:00,
2013-06-22 11:44:00,89.2,76.4,30.07,ENE,64,4.0,5.0,66,0.00,,FEW,0.03,849.00,VWS V14.01,2013-06-22 15:44:00,
2013-06-22 11:45:00,89.2,76.8,30.07,ENE,61,3.0,5.0,67,0.00,,FEW,0.03,854.00,VWS V14.01,2013-06-22 15:45:00,
2013-06-22 11:47:00,89.2,76.8,30.07,ESE,120,3.0,5.0,67,0.00,,FEW,0.03,861.00,VWS V14.01,2013-06-22 15:47:00,
2013-06-22 11:48:00,89.2,76.8,30.07,ESE,103,3.0,5.0,67,0.00,,FEW,0.03,861.00,VWS V14.01,2013-06-22 15:48:00,
2013-06-22 11:49:00,89.2,76.8,30.07,SE,127,4.0,7.0,67,0.00,,FEW,0.03,861.00,VWS V14.01,2013-06-22 15:49:00,
2013-06-22 11:50:00,89.1,77.2,30.07,ESE,111,2.0,7.0,68,0.00,,FEW,0.03,861.00,VWS V14.01,2013-06-22 15:50:00,
2013-06-22 11:53:00,89.3,77.4,30.07,East,90,3.0,3.0,68,0.00,,FEW,0.03,865.00,VWS V14.01,2013-06-22 15:53:00,
2013-06-22 11:54:00,89.3,76.9,30.07,East,90,2.0,3.0,67,0.00,,FEW,0.03,865.00,VWS V14.01,2013-06-22 15:54:00,
2013-06-22 11:55:00,89.3,76.9,30.07,ENE,61,3.0,3.0,67,0.00,,FEW,0.03,861.00,VWS V14.01,2013-06-22 15:55:00,
2013-06-22 11:58:00,89.4,77.0,30.07,SE,130,3.0,6.0,67,0.00,,FEW,0.03,872.00,VWS V14.01,2013-06-22 15:58:00,
2013-06-22 11:59:00,89.4,77.0,30.07,ESE,108,1.0,6.0,67,0.00,,FEW,0.03,875.00,VWS V14.01,2013-06-22 15:59:00,
2013-06-22 12:00:00,89.5,77.6,30.07,ESE,117,3.0,6.0,68,0.00,,FEW,0.03,881.00,VWS V14.01,2013-06-22 16:00:00,
2013-06-22 12:01:00,89.5,77.6,30.07,ESE,117,2.0,6.0,68,0.00,,FEW,0.03,881.00,VWS V14.01,2013-06-22 16:01:00,
2013-06-22 12:03:00,89.7,77.3,30.07,ESE,119,3.0,5.0,67,0.00,,FEW,0.03,884.00,VWS V14.01,2013-06-22 16:03:00,
2013-06-22 12:04:00,89.7,76.8,30.07,SSE,159,4.0,5.0,66,0.00,,FEW,0.03,888.00,VWS V14.01,2013-06-22 16:04:00,
2013-06-22 12:05:00,89.5,76.7,30.07,East,86,1.0,5.0,66,0.00,,FEW,0.03,881.00,VWS V14.01,2013-06-22 16:05:00,
2013-06-22 12:06:00,89.5,76.7,30.07,ENE,62,3.0,5.0,66,0.00,,FEW,0.03,886.00,VWS V14.01,2013-06-22 16:06:00,
2013-06-22 12:08:00,89.6,77.2,30.07,East,92,5.0,6.0,67,0.00,,FEW,0.03,884.00,VWS V14.01,2013-06-22 16:08:00,
2013-06-22 12:09:00,89.5,77.1,30.07,SE,135,4.0,6.0,67,0.00,,FEW,0.03,886.00,VWS V14.01,2013-06-22 16:09:00,
2013-06-22 12:11:00,89.5,77.1,30.07,ESE,109,3.0,7.0,67,0.00,,FEW,0.03,889.00,VWS V14.01,2013-06-22 16:11:00,
2013-06-22 12:13:00,89.1,76.3,30.07,SSE,153,8.0,8.0,66,0.00,,FEW,0.03,898.00,VWS V14.01,2013-06-22 16:13:00,
2013-06-22 12:14:00,88.9,75.6,30.07,SSE,161,5.0,8.0,65,0.00,,FEW,0.03,904.00,VWS V14.01,2013-06-22 16:14:00,
2013-06-22 12:16:00,88.8,76.9,30.07,SE,126,2.0,8.0,68,0.00,,FEW,0.03,916.00,VWS V14.01,2013-06-22 16:16:00,
2013-06-22 12:17:00,88.9,77.4,30.07,ENE,65,1.0,8.0,69,0.00,,FEW,0.03,911.00,VWS V14.01,2013-06-22 16:17:00,
2013-06-22 12:18:00,89.5,78.0,30.07,ENE,61,2.0,8.0,69,0.00,,FEW,0.03,907.00,VWS V14.01,2013-06-22 16:18:00,
2013-06-22 12:19:00,89.6,77.6,30.07,ESE,117,4.0,8.0,68,0.00,,FEW,0.03,907.00,VWS V14.01,2013-06-22 16:19:00,
2013-06-22 12:20:00,89.7,77.7,30.07,East,90,2.0,8.0,68,0.00,,FEW,0.03,909.00,VWS V14.01,2013-06-22 16:20:00,
2013-06-22 12:21:00,89.8,77.8,30.07,East,90,1.0,8.0,68,0.00,,FEW,0.03,912.00,VWS V14.01,2013-06-22 16:21:00,
2013-06-22 12:22:00,89.8,77.8,30.07,East,99,1.0,1.0,68,0.00,,FEW,0.03,911.00,VWS V14.01,2013-06-22 16:22:00,
2013-06-22 12:23:00,89.6,77.2,30.07,SE,137,3.0,3.0,67,0.00,,FEW,0.03,912.00,VWS V14.01,2013-06-22 16:23:00,
2013-06-22 12:24:00,89.3,76.9,30.07,ENE,57,2.0,5.0,67,0.00,,FEW,0.03,912.00,VWS V14.01,2013-06-22 16:24:00,
2013-06-22 12:25:00,89.2,76.8,30.07,ENE,77,3.0,5.0,67,0.00,,FEW,0.03,912.00,VWS V14.01,2013-06-22 16:25:00,
2013-06-22 12:26:00,89.3,77.4,30.07,ESE,117,2.0,5.0,68,0.00,,FEW,0.03,914.00,VWS V14.01,2013-06-22 16:26:00,
2013-06-22 12:27:00,89.3,77.4,30.07,ENE,68,2.0,5.0,68,0.00,,FEW,0.03,911.00,VWS V14.01,2013-06-22 16:27:00,
2013-06-22 12:29:00,89.5,77.1,30.07,NE,46,4.0,5.0,67,0.00,,FEW,0.03,919.00,VWS V14.01,2013-06-22 16:29:00,
2013-06-22 12:30:00,89.6,77.2,30.07,East,90,2.0,6.0,67,0.00,,FEW,0.03,923.00,VWS V14.01,2013-06-22 16:30:00,
2013-06-22 12:31:00,89.5,77.6,30.07,SSE,151,2.0,7.0,68,0.00,,FEW,0.03,928.00,VWS V14.01,2013-06-22 16:31:00,
2013-06-22 12:32:00,89.4,76.6,30.07,SE,135,0.0,4.0,66,0.00,,FEW,0.03,928.00,VWS V14.01,2013-06-22 16:32:00,
2013-06-22 12:34:00,89.5,77.6,30.07,East,86,2.0,4.0,68,0.00,,FEW,0.03,926.00,VWS V14.01,2013-06-22 16:34:00,
2013-06-22 12:35:00,89.7,77.7,30.07,ENE,71,2.0,5.0,68,0.00,,FEW,0.03,925.00,VWS V14.01,2013-06-22 16:35:00,
2013-06-22 12:36:00,90.0,77.6,30.07,SE,128,4.0,5.0,67,0.00,,FEW,0.03,923.00,VWS V14.01,2013-06-22 16:36:00,
2013-06-22 12:37:00,90.1,77.7,30.07,ESE,119,2.0,5.0,67,0.00,,FEW,0.03,925.00,VWS V14.01,2013-06-22 16:37:00,
2013-06-22 12:39:00,90.0,77.6,30.07,SE,134,1.0,5.0,67,0.00,,FEW,0.03,923.00,VWS V14.01,2013-06-22 16:39:00,
2013-06-22 12:40:00,89.8,76.9,30.07,SE,136,0.0,5.0,66,0.00,,FEW,0.03,928.00,VWS V14.01,2013-06-22 16:40:00,
2013-06-22 12:41:00,89.8,77.8,30.07,East,101,2.0,3.0,68,0.00,,FEW,0.03,925.00,VWS V14.01,2013-06-22 16:41:00,
2013-06-22 12:42:00,89.9,77.5,30.07,ENE,72,2.0,3.0,67,0.00,,FEW,0.03,930.00,VWS V14.01,2013-06-22 16:42:00,
2013-06-22 12:44:00,90.3,77.4,30.07,NE,49,2.0,3.0,66,0.00,,FEW,0.03,935.00,VWS V14.01,2013-06-22 16:44:00,
2013-06-22 12:45:00,90.4,77.5,30.07,ENE,66,1.0,3.0,66,0.00,,FEW,0.03,935.00,VWS V14.01,2013-06-22 16:45:00,
2013-06-22 12:47:00,90.6,77.2,30.08,East,95,2.0,3.0,65,0.00,,FEW,0.03,953.00,VWS V14.01,2013-06-22 16:47:00,
2013-06-22 12:49:00,89.8,76.9,30.08,ESE,116,2.0,5.0,66,0.00,,FEW,0.03,953.00,VWS V14.01,2013-06-22 16:49:00,
2013-06-22 12:50:00,89.6,76.7,30.08,ENE,62,2.0,5.0,66,0.00,,FEW,0.03,947.00,VWS V14.01,2013-06-22 16:50:00,
2013-06-22 12:51:00,89.6,77.2,30.08,East,96,3.0,7.0,67,0.00,,FEW,0.03,951.00,VWS V14.01,2013-06-22 16:51:00,
2013-06-22 12:52:00,89.5,76.7,30.08,NE,55,5.0,5.0,66,0.00,,FEW,0.03,946.00,VWS V14.01,2013-06-22 16:52:00,
2013-06-22 12:54:00,89.8,77.4,30.08,East,101,2.0,5.0,67,0.00,,FEW,0.03,939.00,VWS V14.01,2013-06-22 16:54:00,
2013-06-22 12:55:00,89.9,77.5,30.08,NE,46,2.0,5.0,67,0.00,,FEW,0.03,939.00,VWS V14.01,2013-06-22 16:55:00,
2013-06-22 12:56:00,90.0,77.6,30.08,ENE,71,0.0,5.0,67,0.00,,FEW,0.03,933.00,VWS V14.01,2013-06-22 16:56:00,
2013-06-22 12:57:00,90.1,77.7,30.08,SE,124,2.0,5.0,67,0.00,,FEW,0.03,933.00,VWS V14.01,2013-06-22 16:57:00,
2013-06-22 12:58:00,90.3,77.9,30.08,ESE,109,3.0,5.0,67,0.00,,FEW,0.03,933.00,VWS V14.01,2013-06-22 16:58:00,
2013-06-22 12:59:00,90.4,77.5,30.08,ENE,72,1.0,5.0,66,0.00,,FEW,0.03,937.00,VWS V14.01,2013-06-22 16:59:00,
2013-06-22 13:00:00,90.4,77.5,30.08,NE,55,1.0,5.0,66,0.00,,FEW,0.03,944.00,VWS V14.01,2013-06-22 17:00:00,
2013-06-22 13:01:00,90.4,77.5,30.07,ESE,121,2.0,5.0,66,0.00,,FEW,0.03,944.00,VWS V14.01,2013-06-22 17:01:00,
2013-06-22 13:02:00,90.3,77.4,30.07,ESE,112,1.0,4.0,66,0.00,,FEW,0.03,944.00,VWS V14.01,2013-06-22 17:02:00,
2013-06-22 13:03:00,90.3,77.4,30.07,ESE,110,1.0,4.0,66,0.00,,FEW,0.03,940.00,VWS V14.01,2013-06-22 17:03:00,
2013-06-22 13:05:00,90.3,77.4,30.07,NE,53,0.0,6.0,66,0.00,,FEW,0.03,939.00,VWS V14.01,2013-06-22 17:05:00,
2013-06-22 13:06:00,90.2,77.3,30.07,ESE,121,2.0,6.0,66,0.00,,FEW,0.03,935.00,VWS V14.01,2013-06-22 17:06:00,
2013-06-22 13:08:00,90.2,77.8,30.07,East,96,2.0,6.0,67,0.00,,FEW,0.03,939.00,VWS V14.01,2013-06-22 17:08:00,
2013-06-22 13:10:00,90.0,77.1,30.07,East,92,0.0,6.0,66,0.00,,FEW,0.03,947.00,VWS V14.01,2013-06-22 17:10:00,
2013-06-22 13:11:00,89.6,76.7,30.07,NE,56,3.0,6.0,66,0.00,,FEW,0.03,951.00,VWS V14.01,2013-06-22 17:11:00,
2013-06-22 13:13:00,89.7,77.3,30.07,SE,140,6.0,8.0,67,0.00,,FEW,0.03,951.00,VWS V14.01,2013-06-22 17:13:00,
2013-06-22 13:14:00,89.5,77.1,30.07,SE,139,3.0,8.0,67,0.00,,FEW,0.03,956.00,VWS V14.01,2013-06-22 17:14:00,
2013-06-22 13:15:00,89.4,77.9,30.07,SE,126,1.0,8.0,69,0.00,,FEW,0.03,954.00,VWS V14.01,2013-06-22 17:15:00,
2013-06-22 13:16:00,89.7,77.7,30.07,SE,139,2.0,8.0,68,0.00,,FEW,0.03,953.00,VWS V14.01,2013-06-22 17:16:00,
2013-06-22 13:18:00,90.0,77.6,30.07,ENE,71,3.0,8.0,67,0.00,,FEW,0.03,956.00,VWS V14.01,2013-06-22 17:18:00,
2013-06-22 13:19:00,90.1,77.2,30.07,ESE,108,1.0,8.0,66,0.00,,FEW,0.03,965.00,VWS V14.01,2013-06-22 17:19:00,
2013-06-22 13:20:00,89.9,76.6,30.07,SE,145,3.0,8.0,65,0.00,,FEW,0.03,965.00,VWS V14.01,2013-06-22 17:20:00,
2013-06-22 13:22:00,89.9,77.0,30.07,SE,125,1.0,1.0,66,0.00,,FEW,0.03,960.00,VWS V14.01,2013-06-22 17:22:00,
2013-06-22 13:23:00,89.9,77.0,30.07,ESE,123,0.0,2.0,66,0.00,,FEW,0.03,953.00,VWS V14.01,2013-06-22 17:23:00,
2013-06-22 13:24:00,90.2,77.8,30.07,SE,139,1.0,4.0,67,0.00,,FEW,0.03,954.00,VWS V14.01,2013-06-22 17:24:00,
2013-06-22 13:25:00,90.4,77.5,30.07,SE,131,3.0,4.0,66,0.00,,FEW,0.03,954.00,VWS V14.01,2013-06-22 17:25:00,
2013-06-22 13:27:00,90.3,77.9,30.07,SE,126,1.0,4.0,67,0.00,,FEW,0.03,958.00,VWS V14.01,2013-06-22 17:27:00,
2013-06-22 13:28:00,90.4,78.4,30.07,ESE,119,1.0,4.0,68,0.00,,FEW,0.03,953.00,VWS V14.01,2013-06-22 17:28:00,
2013-06-22 13:29:00,90.8,77.9,30.07,ESE,109,1.0,6.0,66,0.00,,FEW,0.03,949.00,VWS V14.01,2013-06-22 17:29:00,
2013-06-22 13:30:00,90.7,77.8,30.07,SE,128,3.0,6.0,66,0.00,,FEW,0.03,956.00,VWS V14.01,2013-06-22 17:30:00,
2013-06-22 13:32:00,90.0,76.7,30.07,SE,128,3.0,3.0,65,0.00,,FEW,0.03,962.00,VWS V14.01,2013-06-22 17:32:00,
2013-06-22 13:33:00,89.3,76.9,30.07,SE,135,3.0,4.0,67,0.00,,FEW,0.03,962.00,VWS V14.01,2013-06-22 17:33:00,
2013-06-22 13:34:00,89.2,77.3,30.07,ESE,121,3.0,4.0,68,0.00,,FEW,0.03,958.00,VWS V14.01,2013-06-22 17:34:00,
2013-06-22 13:35:00,89.2,77.7,30.07,SSE,152,1.0,4.0,69,0.00,,FEW,0.03,956.00,VWS V14.01,2013-06-22 17:35:00,
2013-06-22 13:36:00,89.3,77.8,30.07,SSE,155,1.0,4.0,69,0.00,,FEW,0.03,956.00,VWS V14.01,2013-06-22 17:36:00,
2013-06-22 13:37:00,89.7,78.2,30.07,East,96,1.0,4.0,69,0.00,,FEW,0.03,954.00,VWS V14.01,2013-06-22 17:37:00,
2013-06-22 13:38:00,90.1,78.1,30.07,ENE,57,2.0,4.0,68,0.00,,FEW,0.03,956.00,VWS V14.01,2013-06-22 17:38:00,
2013-06-22 13:40:00,90.4,78.4,30.07,East,90,1.0,4.0,68,0.00,,FEW,0.03,962.00,VWS V14.01,2013-06-22 17:40:00,
2013-06-22 13:41:00,90.3,76.9,30.07,ESE,109,2.0,4.0,65,0.00,,FEW,0.03,962.00,VWS V14.01,2013-06-22 17:41:00,
2013-06-22 13:43:00,90.1,76.8,30.07,South,170,3.0,4.0,65,0.00,,FEW,0.03,969.00,VWS V14.01,2013-06-22 17:43:00,
2013-06-22 13:45:00,90.2,77.8,30.07,East,97,2.0,4.0,67,0.00,,FEW,0.03,972.00,VWS V14.01,2013-06-22 17:45:00,
2013-06-22 13:46:00,90.4,77.9,30.06,East,95,3.0,4.0,67,0.00,,FEW,0.03,972.00,VWS V14.01,2013-06-22 17:46:00,
2013-06-22 13:48:00,90.6,77.7,30.06,ESE,109,3.0,5.0,66,0.00,,FEW,0.03,977.00,VWS V14.01,2013-06-22 17:48:00,
2013-06-22 13:50:00,90.7,78.2,30.06,SE,128,1.0,5.0,67,0.00,,FEW,0.03,984.00,VWS V14.01,2013-06-22 17:50:00,
2013-06-22 13:51:00,90.8,78.3,30.06,SSE,148,6.0,6.0,67,0.00,,FEW,0.03,995.00,VWS V14.01,2013-06-22 17:51:00,
2013-06-22 13:53:00,90.8,78.3,30.06,ESE,123,2.0,4.0,67,0.00,,FEW,0.03,1013.00,VWS V14.01,2013-06-22 17:53:00,
2013-06-22 13:55:00,90.9,78.4,30.06,ESE,103,1.0,6.0,67,0.00,,FEW,0.03,1004.00,VWS V14.01,2013-06-22 17:55:00,
2013-06-22 13:56:00,91.0,78.5,30.06,East,92,2.0,6.0,67,0.00,,FEW,0.03,1007.00,VWS V14.01,2013-06-22 17:56:00,
2013-06-22 13:58:00,90.8,77.4,30.06,ENE,78,5.0,7.0,65,0.00,,FEW,0.03,1007.00,VWS V14.01,2013-06-22 17:58:00,
2013-06-22 13:59:00,90.6,77.2,30.06,East,84,0.0,7.0,65,0.00,,FEW,0.03,1007.00,VWS V14.01,2013-06-22 17:59:00,
2013-06-22 14:00:00,90.8,77.9,30.06,ESE,108,3.0,7.0,66,0.00,,FEW,0.03,970.00,VWS V14.01,2013-06-22 18:00:00,
2013-06-22 14:01:00,90.8,77.9,30.06,ESE,114,1.0,7.0,66,0.00,,FEW,0.03,970.00,VWS V14.01,2013-06-22 18:01:00,
2013-06-22 14:03:00,90.8,77.9,30.06,ENE,76,3.0,7.0,66,0.00,,FEW,0.03,965.00,VWS V14.01,2013-06-22 18:03:00,
2013-06-22 14:04:00,90.8,77.9,30.06,ENE,65,2.0,7.0,66,0.00,,FEW,0.03,965.00,VWS V14.01,2013-06-22 18:04:00,
2013-06-22 14:05:00,90.7,77.8,30.06,SSE,166,3.0,7.0,66,0.00,,FEW,0.03,960.00,VWS V14.01,2013-06-22 18:05:00,
2013-06-22 14:06:00,90.7,77.8,30.06,ENE,75,8.0,8.0,66,0.00,,FEW,0.03,954.00,VWS V14.01,2013-06-22 18:06:00,
2013-06-22 14:07:00,90.6,78.1,30.06,ENE,68,3.0,8.0,67,0.00,,FEW,0.03,954.00,VWS V14.01,2013-06-22 18:07:00,
2013-06-22 14:09:00,90.9,78.4,30.06,ESE,113,5.0,8.0,67,0.00,,FEW,0.03,960.00,VWS V14.01,2013-06-22 18:09:00,
2013-06-22 14:11:00,91.1,77.7,30.06,East,90,5.0,8.0,65,0.00,,FEW,0.03,951.00,VWS V14.01,2013-06-22 18:11:00,
2013-06-22 14:12:00,90.8,76.9,30.06,ENE,77,2.0,3.0,64,0.00,,FEW,0.03,949.00,VWS V14.01,2013-06-22 18:12:00,
2013-06-22 14:14:00,90.8,78.3,30.06,SE,144,4.0,4.0,67,0.00,,FEW,0.03,962.00,VWS V14.01,2013-06-22 18:14:00,
2013-06-22 14:16:00,90.4,77.5,30.06,East,80,5.0,5.0,66,0.00,,FEW,0.03,965.00,VWS V14.01,2013-06-22 18:16:00,
2013-06-22 14:17:00,90.4,77.9,30.06,NE,55,2.0,7.0,67,0.00,,FEW,0.03,958.00,VWS V14.01,2013-06-22 18:17:00,
2013-06-22 14:19:00,90.6,78.6,30.06,East,95,2.0,7.0,68,0.00,,FEW,0.03,953.00,VWS V14.01,2013-06-22 18:19:00,
2013-06-22 14:21:00,90.6,78.6,30.06,East,99,1.0,7.0,68,0.00,,FEW,0.03,891.00,VWS V14.01,2013-06-22 18:21:00,
2013-06-22 14:22:00,90.7,78.7,30.06,ENE,70,2.0,5.0,68,0.00,,FEW,0.03,986.00,VWS V14.01,2013-06-22 18:22:00,
2013-06-22 14:24:00,90.9,78.4,30.06,ESE,103,1.0,5.0,67,0.00,,FEW,0.03,990.00,VWS V14.01,2013-06-22 18:24:00,
2013-06-22 14:26:00,90.8,77.9,30.06,East,87,1.0,8.0,66,0.00,,FEW,0.03,942.00,VWS V14.01,2013-06-22 18:26:00,
2013-06-22 14:27:00,90.6,77.2,30.06,East,92,5.0,8.0,65,0.00,,FEW,0.03,942.00,VWS V14.01,2013-06-22 18:27:00,
2013-06-22 14:29:00,90.4,78.4,30.06,ENE,66,2.0,8.0,68,0.00,,FEW,0.03,935.00,VWS V14.01,2013-06-22 18:29:00,
2013-06-22 14:30:00,90.4,78.4,30.06,NE,51,2.0,8.0,68,0.00,,FEW,0.03,935.00,VWS V14.01,2013-06-22 18:30:00,
2013-06-22 14:31:00,90.8,78.3,30.05,SSE,163,1.0,8.0,67,0.00,,FEW,0.03,942.00,VWS V14.01,2013-06-22 18:31:00,
2013-06-22 14:32:00,91.0,78.5,30.05,East,82,5.0,5.0,67,0.00,,FEW,0.03,942.00,VWS V14.01,2013-06-22 18:32:00,
2013-06-22 14:34:00,91.1,77.2,30.05,ENE,73,1.0,5.0,64,0.00,,FEW,0.03,962.00,VWS V14.01,2013-06-22 18:34:00,
2013-06-22 14:35:00,91.1,77.2,30.05,ESE,121,4.0,5.0,64,0.00,,FEW,0.03,962.00,VWS V14.01,2013-06-22 18:35:00,
2013-06-22 14:37:00,90.7,78.2,30.05,East,84,3.0,5.0,67,0.00,,FEW,0.03,949.00,VWS V14.01,2013-06-22 18:37:00,
2013-06-22 14:40:00,90.4,77.9,30.05,ESE,120,4.0,7.0,67,0.00,,FEW,0.03,933.00,VWS V14.01,2013-06-22 18:40:00,
2013-06-22 14:42:00,90.2,78.2,30.05,ESE,123,3.0,4.0,68,0.00,,FEW,0.03,933.00,VWS V14.01,2013-06-22 18:42:00,
2013-06-22 14:45:00,90.6,78.6,30.05,ESE,104,1.0,5.0,68,0.00,,FEW,0.03,930.00,VWS V14.01,2013-06-22 18:45:00,
2013-06-22 14:47:00,90.5,78.5,30.05,ENE,74,1.0,5.0,68,0.00,,FEW,0.03,933.00,VWS V14.01,2013-06-22 18:47:00,
2013-06-22 14:48:00,90.6,78.6,30.05,NE,54,2.0,5.0,68,0.00,,FEW,0.03,940.00,VWS V14.01,2013-06-22 18:48:00,
2013-06-22 14:50:00,91.0,78.5,30.05,East,84,1.0,6.0,67,0.00,,FEW,0.03,918.00,VWS V14.01,2013-06-22 18:50:00,
2013-06-22 14:52:00,91.2,78.3,30.05,ESE,117,0.0,5.0,66,0.00,,FEW,0.03,972.00,VWS V14.01,2013-06-22 18:52:00,
2013-06-22 14:53:00,91.2,78.7,30.05,ESE,104,4.0,5.0,67,0.00,,FEW,0.03,972.00,VWS V14.01,2013-06-22 18:53:00,
2013-06-22 14:55:00,90.9,78.0,30.05,ENE,77,3.0,5.0,66,0.00,,FEW,0.03,385.00,VWS V14.01,2013-06-22 18:55:00,
2013-06-22 14:57:00,90.4,77.5,30.05,ESE,121,7.0,7.0,66,0.00,,FEW,0.03,912.00,VWS V14.01,2013-06-22 18:57:00,
2013-06-22 14:58:00,90.4,77.5,30.05,ESE,106,5.0,7.0,66,0.00,,FEW,0.03,907.00,VWS V14.01,2013-06-22 18:58:00,
2013-06-22 15:00:00,90.2,77.3,30.05,ENE,63,0.0,8.0,66,0.00,,FEW,0.03,904.00,VWS V14.01,2013-06-22 19:00:00,
2013-06-22 15:02:00,90.3,77.4,30.04,ENE,70,2.0,4.0,66,0.00,,FEW,0.03,895.00,VWS V14.01,2013-06-22 19:02:00,
2013-06-22 15:03:00,90.3,77.4,30.04,NE,36,4.0,4.0,66,0.00,,FEW,0.03,895.00,VWS V14.01,2013-06-22 19:03:00,
2013-06-22 15:05:00,90.5,77.6,30.04,NE,56,2.0,7.0,66,0.00,,FEW,0.03,891.00,VWS V14.01,2013-06-22 19:05:00,
2013-06-22 15:08:00,90.4,77.9,30.04,ESE,109,2.0,8.0,67,0.00,,FEW,0.03,877.00,VWS V14.01,2013-06-22 19:08:00,
2013-06-22 15:09:00,90.2,77.8,30.04,East,97,2.0,8.0,67,0.00,,FEW,0.03,879.00,VWS V14.01,2013-06-22 19:09:00,
2013-06-22 15:10:00,89.8,77.4,30.04,East,90,0.0,8.0,67,0.00,,FEW,0.03,874.00,VWS V14.01,2013-06-22 19:10:00,
2013-06-22 15:13:00,89.9,77.9,30.04,East,94,2.0,4.0,68,0.00,,FEW,0.03,881.00,VWS V14.01,2013-06-22 19:13:00,
2013-06-22 15:14:00,90.0,78.5,30.04,SE,135,6.0,6.0,69,0.00,,FEW,0.03,884.00,VWS V14.01,2013-06-22 19:14:00,
2013-06-22 15:15:00,89.9,77.9,30.04,ENE,75,1.0,8.0,68,0.00,,FEW,0.03,893.00,VWS V14.01,2013-06-22 19:15:00,
2013-06-22 15:18:00,89.7,77.7,30.03,ENE,65,2.0,8.0,68,0.00,,FEW,0.03,886.00,VWS V14.01,2013-06-22 19:18:00,
2013-06-22 15:19:00,89.8,77.8,30.03,ENE,60,1.0,8.0,68,0.00,,FEW,0.03,886.00,VWS V14.01,2013-06-22 19:19:00,
2013-06-22 15:20:00,90.2,77.8,30.03,East,85,2.0,8.0,67,0.00,,FEW,0.03,874.00,VWS V14.01,2013-06-22 19:20:00,
2013-06-22 15:23:00,90.5,78.5,30.03,ESE,114,3.0,4.0,68,0.00,,FEW,0.03,904.00,VWS V14.01,2013-06-22 19:23:00,
2013-06-22 15:24:00,90.6,78.1,30.03,ENE,78,1.0,4.0,67,0.00,,FEW,0.03,837.00,VWS V14.01,2013-06-22 19:24:00,
2013-06-22 15:26:00,90.6,78.6,30.03,ESE,104,4.0,4.0,68,0.00,,FEW,0.03,837.00,VWS V14.01,2013-06-22 19:26:00,
2013-06-22 15:28:00,90.4,77.9,30.03,ENE,63,1.0,5.0,67,0.00,,FEW,0.03,870.00,VWS V14.01,2013-06-22 19:28:00,
2013-06-22 15:29:00,90.4,77.9,30.03,ESE,107,2.0,5.0,67,0.00,,FEW,0.03,861.00,VWS V14.01,2013-06-22 19:29:00,
2013-06-22 15:31:00,90.3,78.3,30.03,SE,132,2.0,5.0,68,0.00,,FEW,0.03,851.00,VWS V14.01,2013-06-22 19:31:00,
2013-06-22 15:33:00,90.7,78.2,30.03,ENE,66,4.0,8.0,67,0.00,,FEW,0.03,837.00,VWS V14.01,2013-06-22 19:33:00,
2013-06-22 15:34:00,90.6,78.6,30.03,ENE,74,5.0,8.0,68,0.00,,FEW,0.03,830.00,VWS V14.01,2013-06-22 19:34:00,
2013-06-22 15:36:00,90.4,78.4,30.03,ENE,64,2.0,8.0,68,0.00,,FEW,0.03,824.00,VWS V14.01,2013-06-22 19:36:00,
2013-06-22 15:38:00,90.4,77.9,30.03,NE,46,3.0,8.0,67,0.00,,FEW,0.03,814.00,VWS V14.01,2013-06-22 19:38:00,
2013-06-22 15:39:00,90.2,77.8,30.03,East,100,5.0,8.0,67,0.00,,FEW,0.03,810.00,VWS V14.01,2013-06-22 19:39:00,
2013-06-22 15:41:00,90.2,78.7,30.03,ENE,59,3.0,8.0,69,0.00,,FEW,0.03,809.00,VWS V14.01,2013-06-22 19:41:00,
2013-06-22 15:43:00,90.0,77.6,30.03,SE,125,5.0,8.0,67,0.00,,FEW,0.03,821.00,VWS V14.01,2013-06-22 19:43:00,
2013-06-22 15:44:00,90.0,78.5,30.03,East,89,6.0,8.0,69,0.00,,FEW,0.03,821.00,VWS V14.01,2013-06-22 19:44:00,
2013-06-22 15:45:00,90.0,78.5,30.03,SE,129,3.0,8.0,69,0.00,,FEW,0.03,819.00,VWS V14.01,2013-06-22 19:45:00,
2013-06-22 15:46:00,89.9,78.4,30.03,ENE,76,3.0,8.0,69,0.00,,FEW,0.03,814.00,VWS V14.01,2013-06-22 19:46:00,
2013-06-22 15:48:00,90.0,78.0,30.03,ENE,74,1.0,8.0,68,0.00,,FEW,0.03,798.00,VWS V14.01,2013-06-22 19:48:00,
2013-06-22 15:49:00,90.1,78.6,30.03,East,94,5.0,8.0,69,0.00,,FEW,0.03,802.00,VWS V14.01,2013-06-22 19:49:00,
2013-06-22 15:50:00,90.1,78.6,30.03,East,96,2.0,8.0,69,0.00,,FEW,0.03,802.00,VWS V14.01,2013-06-22 19:50:00,
2013-06-22 15:51:00,90.2,79.1,30.03,East,82,3.0,8.0,70,0.00,,FEW,0.03,816.00,VWS V14.01,2013-06-22 19:51:00,
2013-06-22 15:53:00,90.3,78.3,30.03,ESE,113,0.0,4.0,68,0.00,,FEW,0.03,828.00,VWS V14.01,2013-06-22 19:53:00,
2013-06-22 15:54:00,90.2,78.7,30.03,ESE,116,2.0,7.0,69,0.00,,FEW,0.03,800.00,VWS V14.01,2013-06-22 19:54:00,
2013-06-22 15:55:00,90.2,78.7,30.03,ESE,108,2.0,7.0,69,0.00,,FEW,0.03,800.00,VWS V14.01,2013-06-22 19:55:00,
2013-06-22 15:56:00,90.0,78.0,30.03,East,82,5.0,9.0,68,0.00,,FEW,0.03,805.00,VWS V14.01,2013-06-22 19:56:00,
2013-06-22 15:58:00,89.9,78.4,30.03,ENE,65,3.0,9.0,69,0.00,,FEW,0.03,780.00,VWS V14.01,2013-06-22 19:58:00,
2013-06-22 15:59:00,90.1,78.6,30.03,ENE,60,4.0,9.0,69,0.00,,FEW,0.03,800.00,VWS V14.01,2013-06-22 19:59:00,
2013-06-22 16:00:00,90.1,77.7,30.03,NE,40,4.0,9.0,67,0.00,,FEW,0.03,800.00,VWS V14.01,2013-06-22 20:00:00,
2013-06-22 16:01:00,90.0,77.6,30.03,ENE,68,2.0,9.0,67,0.00,,FEW,0.03,835.00,VWS V14.01,2013-06-22 20:01:00,
2013-06-22 16:04:00,90.1,78.6,30.03,ENE,73,8.0,8.0,69,0.00,,FEW,0.03,719.00,VWS V14.01,2013-06-22 20:04:00,
2013-06-22 16:05:00,90.1,77.7,30.03,NE,55,1.0,8.0,67,0.00,,FEW,0.03,775.00,VWS V14.01,2013-06-22 20:05:00,
2013-06-22 16:06:00,90.1,77.7,30.03,ENE,78,1.0,8.0,67,0.00,,FEW,0.03,763.00,VWS V14.01,2013-06-22 20:06:00,
2013-06-22 16:09:00,90.4,77.9,30.03,East,92,2.0,8.0,67,0.00,,FEW,0.03,740.00,VWS V14.01,2013-06-22 20:09:00,
2013-06-22 16:10:00,90.3,77.9,30.03,SE,132,3.0,8.0,67,0.00,,FEW,0.03,744.00,VWS V14.01,2013-06-22 20:10:00,
2013-06-22 16:11:00,90.3,78.8,30.03,ENE,67,0.0,8.0,69,0.00,,FEW,0.03,742.00,VWS V14.01,2013-06-22 20:11:00,
2013-06-22 16:12:00,90.4,78.8,30.03,ENE,70,0.0,1.0,69,0.00,,FEW,0.03,742.00,VWS V14.01,2013-06-22 20:12:00,
2013-06-22 16:14:00,90.5,78.5,30.03,ENE,57,2.0,5.0,68,0.00,,FEW,0.03,738.00,VWS V14.01,2013-06-22 20:14:00,
2013-06-22 16:15:00,90.6,78.6,30.03,SE,146,2.0,6.0,68,0.00,,FEW,0.03,738.00,VWS V14.01,2013-06-22 20:15:00,
2013-06-22 16:16:00,90.6,78.6,30.03,ENE,67,1.0,7.0,68,0.00,,FEW,0.03,680.00,VWS V14.01,2013-06-22 20:16:00,
2013-06-22 16:17:00,90.5,78.1,30.03,SE,146,0.0,7.0,67,0.00,,FEW,0.03,680.00,VWS V14.01,2013-06-22 20:17:00,
2013-06-22 16:19:00,90.4,78.4,30.03,NE,53,3.0,7.0,68,0.00,,FEW,0.03,735.00,VWS V14.01,2013-06-22 20:19:00,
2013-06-22 16:20:00,90.4,77.9,30.03,ENE,66,3.0,7.0,67,0.00,,FEW,0.03,733.00,VWS V14.01,2013-06-22 20:20:00,
2013-06-22 16:21:00,90.5,78.1,30.03,NNE,28,3.0,7.0,67,0.00,,FEW,0.03,733.00,VWS V14.01,2013-06-22 20:21:00,
2013-06-22 16:22:00,90.4,77.9,30.03,ENE,74,4.0,7.0,67,0.00,,FEW,0.03,740.00,VWS V14.01,2013-06-22 20:22:00,
2013-06-22 16:24:00,90.5,78.1,30.03,ESE,117,3.0,7.0,67,0.00,,FEW,0.03,717.00,VWS V14.01,2013-06-22 20:24:00,
2013-06-22 16:25:00,90.2,77.8,30.03,SE,134,3.0,7.0,67,0.00,,FEW,0.03,710.00,VWS V14.01,2013-06-22 20:25:00,
2013-06-22 16:26:00,90.2,77.8,30.03,ESE,107,1.0,7.0,67,0.00,,FEW,0.03,710.00,VWS V14.01,2013-06-22 20:26:00,
2013-06-22 16:27:00,90.1,78.1,30.03,ESE,115,1.0,7.0,68,0.00,,FEW,0.03,710.00,VWS V14.01,2013-06-22 20:27:00,
2013-06-22 16:29:00,90.1,78.1,30.03,East,82,6.0,7.0,68,0.00,,FEW,0.03,701.00,VWS V14.01,2013-06-22 20:29:00,
2013-06-22 16:30:00,89.9,77.0,30.02,ENE,62,2.0,7.0,66,0.00,,FEW,0.03,698.00,VWS V14.01,2013-06-22 20:30:00,
2013-06-22 16:31:00,89.9,77.0,30.02,SE,132,2.0,7.0,66,0.00,,FEW,0.03,693.00,VWS V14.01,2013-06-22 20:31:00,
2013-06-22 16:32:00,89.9,77.5,30.02,ENE,66,2.0,2.0,67,0.00,,FEW,0.03,687.00,VWS V14.01,2013-06-22 20:32:00,
2013-06-22 16:34:00,89.8,77.8,30.02,SSE,153,4.0,7.0,68,0.00,,FEW,0.03,679.00,VWS V14.01,2013-06-22 20:34:00,
2013-06-22 16:36:00,89.8,77.4,30.02,East,87,1.0,7.0,67,0.00,,FEW,0.03,671.00,VWS V14.01,2013-06-22 20:36:00,
2013-06-22 16:37:00,89.8,77.4,30.02,ESE,105,2.0,7.0,67,0.00,,FEW,0.03,666.00,VWS V14.01,2013-06-22 20:37:00,
2013-06-22 16:39:00,89.7,77.7,30.02,SE,124,2.0,7.0,68,0.00,,FEW,0.03,652.00,VWS V14.01,2013-06-22 20:39:00,
2013-06-22 16:41:00,89.6,77.2,30.02,SSE,167,5.0,7.0,67,0.00,,FEW,0.03,650.00,VWS V14.01,2013-06-22 20:41:00,
2013-06-22 16:42:00,89.5,77.6,30.02,SE,129,3.0,3.0,68,0.00,,FEW,0.03,650.00,VWS V14.01,2013-06-22 20:42:00,
2013-06-22 16:44:00,89.5,77.6,30.02,SE,131,4.0,6.0,68,0.00,,FEW,0.03,605.00,VWS V14.01,2013-06-22 20:44:00,
2013-06-22 16:46:00,89.5,77.6,30.02,ESE,117,1.0,6.0,68,0.00,,FEW,0.03,650.00,VWS V14.01,2013-06-22 20:46:00,
2013-06-22 16:47:00,89.6,78.1,30.02,SE,133,2.0,6.0,69,0.00,,FEW,0.03,642.00,VWS V14.01,2013-06-22 20:47:00,
2013-06-22 16:50:00,90.1,78.6,30.02,ENE,74,2.0,6.0,69,0.00,,FEW,0.03,663.00,VWS V14.01,2013-06-22 20:50:00,
2013-06-22 16:51:00,90.3,78.3,30.02,ESE,106,4.0,6.0,68,0.00,,FEW,0.03,628.00,VWS V14.01,2013-06-22 20:51:00,
2013-06-22 16:52:00,90.2,78.2,30.02,NE,36,0.0,4.0,68,0.00,,FEW,0.03,171.00,VWS V14.01,2013-06-22 20:52:00,
2013-06-22 16:55:00,90.0,78.0,30.02,East,86,0.0,6.0,68,0.00,,FEW,0.03,652.00,VWS V14.01,2013-06-22 20:55:00,
2013-06-22 16:56:00,89.9,78.4,30.02,ENE,76,3.0,7.0,69,0.00,,FEW,0.03,647.00,VWS V14.01,2013-06-22 20:56:00,
2013-06-22 16:57:00,89.9,78.4,30.02,ENE,69,5.0,7.0,69,0.00,,FEW,0.03,652.00,VWS V14.01,2013-06-22 20:57:00,
2013-06-22 17:00:00,89.7,78.2,30.02,East,96,2.0,7.0,69,0.00,,FEW,0.03,622.00,VWS V14.01,2013-06-22 21:00:00,
2013-06-22 17:01:00,89.6,78.1,30.02,SE,131,1.0,1.0,69,0.00,,FEW,0.03,636.00,VWS V14.01,2013-06-22 21:01:00,
2013-06-22 17:02:00,89.7,78.6,30.02,East,91,5.0,6.0,70,0.00,,FEW,0.03,636.00,VWS V14.01,2013-06-22 21:02:00,
2013-06-22 17:03:00,89.7,78.6,30.02,ESE,103,1.0,6.0,70,0.00,,FEW,0.03,654.00,VWS V14.01,2013-06-22 21:03:00,
2013-06-22 17:05:00,89.7,78.6,30.02,ENE,57,3.0,6.0,70,0.00,,FEW,0.03,621.00,VWS V14.01,2013-06-22 21:05:00,
2013-06-22 17:06:00,89.6,78.1,30.02,East,90,1.0,6.0,69,0.00,,FEW,0.03,631.00,VWS V14.01,2013-06-22 21:06:00,
2013-06-22 17:07:00,89.5,78.4,30.02,NE,40,3.0,7.0,70,0.00,,FEW,0.03,635.00,VWS V14.01,2013-06-22 21:07:00,
2013-06-22 17:08:00,89.5,78.4,30.02,ENE,74,5.0,7.0,70,0.00,,FEW,0.03,635.00,VWS V14.01,2013-06-22 21:08:00,
2013-06-22 17:10:00,89.4,77.9,30.02,ESE,107,0.0,7.0,69,0.00,,FEW,0.03,621.00,VWS V14.01,2013-06-22 21:10:00,
2013-06-22 17:12:00,89.7,78.6,30.02,ESE,116,4.0,7.0,70,0.00,,FEW,0.03,624.00,VWS V14.01,2013-06-22 21:12:00,
2013-06-22 17:13:00,89.8,78.7,30.02,ENE,65,2.0,4.0,70,0.00,,FEW,0.03,613.00,VWS V14.01,2013-06-22 21:13:00,
2013-06-22 17:15:00,90.1,78.6,30.02,East,94,1.0,4.0,69,0.00,,FEW,0.03,214.00,VWS V14.01,2013-06-22 21:15:00,
2013-06-22 17:17:00,90.1,78.1,30.02,East,85,2.0,5.0,68,0.00,,FEW,0.03,214.00,VWS V14.01,2013-06-22 21:17:00,
2013-06-22 17:18:00,90.0,78.0,30.02,East,98,3.0,5.0,68,0.00,,FEW,0.03,214.00,VWS V14.01,2013-06-22 21:18:00,
2013-06-22 17:21:00,89.6,77.6,30.02,East,96,1.0,8.0,68,0.00,,FEW,0.03,160.00,VWS V14.01,2013-06-22 21:21:00,
2013-06-22 17:22:00,89.4,77.4,30.02,ESE,106,2.0,4.0,68,0.00,,FEW,0.03,160.00,VWS V14.01,2013-06-22 21:22:00,
2013-06-22 17:23:00,89.2,77.7,30.02,SE,124,2.0,5.0,69,0.00,,FEW,0.03,160.00,VWS V14.01,2013-06-22 21:23:00,
2013-06-22 17:26:00,89.0,77.5,30.02,ENE,66,2.0,6.0,69,0.00,,FEW,0.03,545.00,VWS V14.01,2013-06-22 21:26:00,
2013-06-22 17:27:00,89.0,77.1,30.02,ENE,65,2.0,7.0,68,0.00,,FEW,0.03,534.00,VWS V14.01,2013-06-22 21:27:00,
2013-06-22 17:28:00,89.1,77.2,30.02,ENE,59,2.0,7.0,68,0.00,,FEW,0.03,494.00,VWS V14.01,2013-06-22 21:28:00,
2013-06-22 17:31:00,89.5,77.6,30.02,ENE,74,1.0,7.0,68,0.00,,FEW,0.03,540.00,VWS V14.01,2013-06-22 21:31:00,
2013-06-22 17:32:00,89.6,78.1,30.02,East,83,5.0,5.0,69,0.00,,FEW,0.03,473.00,VWS V14.01,2013-06-22 21:32:00,
2013-06-22 17:33:00,89.6,77.6,30.02,ENE,76,3.0,6.0,68,0.00,,FEW,0.03,461.00,VWS V14.01,2013-06-22 21:33:00,
2013-06-22 17:36:00,89.4,77.0,30.02,East,79,1.0,7.0,67,0.00,,FEW,0.03,499.00,VWS V14.01,2013-06-22 21:36:00,
2013-06-22 17:37:00,89.4,77.4,30.02,ENE,64,2.0,7.0,68,0.00,,FEW,0.03,497.00,VWS V14.01,2013-06-22 21:37:00,
2013-06-22 17:38:00,89.5,77.6,30.02,ENE,76,0.0,7.0,68,0.00,,FEW,0.03,487.00,VWS V14.01,2013-06-22 21:38:00,
2013-06-22 17:39:00,89.5,77.6,30.02,ENE,67,1.0,7.0,68,0.00,,FEW,0.03,487.00,VWS V14.01,2013-06-22 21:39:00,
2013-06-22 17:41:00,89.7,77.7,30.02,SE,129,3.0,7.0,68,0.00,,FEW,0.03,482.00,VWS V14.01,2013-06-22 21:41:00,
2013-06-22 17:42:00,89.8,77.8,30.02,NE,56,1.0,3.0,68,0.00,,FEW,0.03,464.00,VWS V14.01,2013-06-22 21:42:00,
2013-06-22 17:43:00,89.8,77.8,30.02,NE,34,2.0,5.0,68,0.00,,FEW,0.03,475.00,VWS V14.01,2013-06-22 21:43:00,
2013-06-22 17:44:00,89.8,77.8,30.02,ENE,57,4.0,5.0,68,0.00,,FEW,0.03,475.00,VWS V14.01,2013-06-22 21:44:00,
2013-06-22 17:46:00,89.7,77.7,30.02,East,90,3.0,9.0,68,0.00,,FEW,0.03,411.00,VWS V14.01,2013-06-22 21:46:00,
2013-06-22 17:47:00,89.7,78.2,30.02,ENE,71,1.0,9.0,69,0.00,,FEW,0.03,411.00,VWS V14.01,2013-06-22 21:47:00,
2013-06-22 17:48:00,89.7,78.2,30.02,ENE,71,1.0,9.0,69,0.00,,FEW,0.03,260.00,VWS V14.01,2013-06-22 21:48:00,
2013-06-22 17:49:00,89.8,78.7,30.02,ENE,71,0.0,9.0,70,0.00,,FEW,0.03,218.00,VWS V14.01,2013-06-22 21:49:00,
2013-06-22 17:51:00,89.8,78.7,30.02,NE,44,2.0,9.0,70,0.00,,FEW,0.03,160.00,VWS V14.01,2013-06-22 21:51:00,
2013-06-22 17:52:00,89.8,78.3,30.02,ESE,107,4.0,5.0,69,0.00,,FEW,0.03,174.00,VWS V14.01,2013-06-22 21:52:00,
2013-06-22 17:53:00,89.6,77.6,30.02,ESE,103,1.0,5.0,68,0.00,,FEW,0.03,174.00,VWS V14.01,2013-06-22 21:53:00,
2013-06-22 17:54:00,89.5,77.6,30.02,East,101,6.0,7.0,68,0.00,,FEW,0.03,285.00,VWS V14.01,2013-06-22 21:54:00,
2013-06-22 17:56:00,89.0,77.1,30.02,ENE,57,3.0,8.0,68,0.00,,FEW,0.03,229.00,VWS V14.01,2013-06-22 21:56:00,
2013-06-22 17:57:00,88.9,77.4,30.02,NE,51,3.0,8.0,69,0.00,,FEW,0.03,229.00,VWS V14.01,2013-06-22 21:57:00,
2013-06-22 17:59:00,88.8,77.3,30.02,ENE,69,1.0,8.0,69,0.00,,FEW,0.03,425.00,VWS V14.01,2013-06-22 21:59:00,
2013-06-22 18:01:00,88.8,77.8,30.02,NE,40,2.0,8.0,70,0.00,,FEW,0.03,418.00,VWS V14.01,2013-06-22 22:01:00,
2013-06-22 18:03:00,88.7,77.7,30.02,ENE,65,2.0,3.0,70,0.00,,FEW,0.03,120.00,VWS V14.01,2013-06-22 22:03:00,
2013-06-22 18:04:00,88.7,77.7,30.02,NNE,33,2.0,6.0,70,0.00,,FEW,0.03,120.00,VWS V14.01,2013-06-22 22:04:00,
2013-06-22 18:06:00,88.4,76.9,30.02,East,92,0.0,7.0,69,0.00,,FEW,0.03,132.00,VWS V14.01,2013-06-22 22:06:00,
2013-06-22 18:08:00,88.4,77.4,30.02,East,80,3.0,7.0,70,0.00,,FEW,0.03,410.00,VWS V14.01,2013-06-22 22:08:00,
2013-06-22 18:09:00,88.4,77.4,30.02,SE,128,2.0,7.0,70,0.00,,FEW,0.03,418.00,VWS V14.01,2013-06-22 22:09:00,
2013-06-22 18:12:00,88.4,77.4,30.02,ENE,78,2.0,5.0,70,0.00,,FEW,0.03,387.00,VWS V14.01,2013-06-22 22:12:00,
2013-06-22 18:13:00,88.4,77.4,30.02,East,90,1.0,5.0,70,0.00,,FEW,0.03,283.00,VWS V14.01,2013-06-22 22:13:00,
2013-06-22 18:14:00,88.5,77.9,30.02,NE,55,1.0,6.0,71,0.00,,FEW,0.03,243.00,VWS V14.01,2013-06-22 22:14:00,
2013-06-22 18:15:00,88.5,77.9,30.02,NE,55,0.0,6.0,71,0.00,,FEW,0.03,243.00,VWS V14.01,2013-06-22 22:15:00,
2013-06-22 18:17:00,88.4,77.4,30.02,ESE,109,1.0,6.0,70,0.00,,FEW,0.03,357.00,VWS V14.01,2013-06-22 22:17:00,
2013-06-22 18:18:00,88.4,77.4,30.02,ESE,108,2.0,6.0,70,0.00,,FEW,0.03,357.00,VWS V14.01,2013-06-22 22:18:00,
2013-06-22 18:19:00,88.4,77.4,30.02,ENE,78,3.0,7.0,70,0.00,,FEW,0.03,339.00,VWS V14.01,2013-06-22 22:19:00,
2013-06-22 18:20:00,88.4,77.4,30.02,East,82,2.0,7.0,70,0.00,,FEW,0.03,339.00,VWS V14.01,2013-06-22 22:20:00,
2013-06-22 18:23:00,88.4,77.4,30.02,East,94,5.0,6.0,70,0.00,,FEW,0.03,206.00,VWS V14.01,2013-06-22 22:23:00,
2013-06-22 18:24:00,88.2,77.2,30.02,NE,40,3.0,8.0,70,0.00,,FEW,0.03,130.00,VWS V14.01,2013-06-22 22:24:00,
2013-06-22 18:25:00,88.2,77.2,30.02,NE,40,2.0,8.0,70,0.00,,FEW,0.03,130.00,VWS V14.01,2013-06-22 22:25:00,
2013-06-22 18:28:00,88.2,77.6,30.02,ENE,67,3.0,8.0,71,0.00,,FEW,0.03,318.00,VWS V14.01,2013-06-22 22:28:00,
2013-06-22 18:30:00,88.2,77.6,30.02,ENE,66,5.0,8.0,71,0.00,,FEW,0.03,311.00,VWS V14.01,2013-06-22 22:30:00,
2013-06-22 18:33:00,88.3,77.7,30.01,ESE,109,2.0,5.0,71,0.00,,FEW,0.03,306.00,VWS V14.01,2013-06-22 22:33:00,
2013-06-22 18:35:00,88.3,77.3,30.01,ENE,75,2.0,5.0,70,0.00,,FEW,0.03,287.00,VWS V14.01,2013-06-22 22:35:00,
2013-06-22 18:38:00,88.4,77.4,30.01,ENE,69,4.0,8.0,70,0.00,,FEW,0.03,269.00,VWS V14.01,2013-06-22 22:38:00,
2013-06-22 18:40:00,88.3,76.8,30.01,East,98,3.0,8.0,69,0.00,,FEW,0.03,149.00,VWS V14.01,2013-06-22 22:40:00,
2013-06-22 18:43:00,88.0,76.6,30.01,ENE,65,3.0,7.0,69,0.00,,FEW,0.03,244.00,VWS V14.01,2013-06-22 22:43:00,
2013-06-22 18:45:00,87.9,76.5,30.01,ESE,115,4.0,8.0,69,0.00,,FEW,0.03,230.00,VWS V14.01,2013-06-22 22:45:00,
2013-06-22 18:48:00,87.8,77.2,30.01,East,89,5.0,8.0,71,0.00,,FEW,0.03,244.00,VWS V14.01,2013-06-22 22:48:00,
2013-06-22 18:49:00,87.8,77.2,30.01,East,87,3.0,8.0,71,0.00,,FEW,0.03,239.00,VWS V14.01,2013-06-22 22:49:00,
2013-06-22 18:50:00,87.9,77.3,30.01,ENE,58,1.0,8.0,71,0.00,,FEW,0.03,234.00,VWS V14.01,2013-06-22 22:50:00,
2013-06-22 18:54:00,87.9,77.8,30.01,ENE,72,2.0,5.0,72,0.00,,FEW,0.03,237.00,VWS V14.01,2013-06-22 22:54:00,
2013-06-22 18:55:00,88.0,77.8,30.01,East,84,1.0,5.0,72,0.00,,FEW,0.03,229.00,VWS V14.01,2013-06-22 22:55:00,
2013-06-22 18:59:00,87.9,77.3,30.01,East,80,5.0,7.0,71,0.00,,FEW,0.03,207.00,VWS V14.01,2013-06-22 22:59:00,
2013-06-22 19:00:00,87.8,77.2,30.01,East,79,2.0,8.0,71,0.00,,FEW,0.03,113.00,VWS V14.01,2013-06-22 23:00:00,
2013-06-22 19:04:00,87.5,77.8,30.01,East,90,2.0,4.0,73,0.00,,FEW,0.03,116.00,VWS V14.01,2013-06-22 23:04:00,
2013-06-22 19:05:00,87.6,77.9,30.01,ENE,62,1.0,4.0,73,0.00,,FEW,0.03,181.00,VWS V14.01,2013-06-22 23:05:00,
2013-06-22 19:09:00,87.6,77.5,30.01,East,96,3.0,6.0,72,0.00,,FEW,0.03,167.00,VWS V14.01,2013-06-22 23:09:00,
2013-06-22 19:10:00,87.5,77.4,30.01,ENE,74,5.0,6.0,72,0.00,,FEW,0.03,165.00,VWS V14.01,2013-06-22 23:10:00,
2013-06-22 19:14:00,87.4,77.7,30.01,ESE,117,3.0,3.0,73,0.00,,FEW,0.03,162.00,VWS V14.01,2013-06-22 23:14:00,
2013-06-22 19:15:00,87.4,77.7,30.01,ENE,71,3.0,5.0,73,0.00,,FEW,0.03,156.00,VWS V14.01,2013-06-22 23:15:00,
2013-06-22 19:16:00,87.4,77.7,30.01,ESE,121,5.0,5.0,73,0.00,,FEW,0.03,156.00,VWS V14.01,2013-06-22 23:16:00,
2013-06-22 19:19:00,87.1,77.0,30.02,ENE,61,2.0,6.0,72,0.00,,FEW,0.03,135.00,VWS V14.01,2013-06-22 23:19:00,
2013-06-22 19:20:00,87.1,77.0,30.02,ENE,68,2.0,6.0,72,0.00,,FEW,0.03,132.00,VWS V14.01,2013-06-22 23:20:00,
2013-06-22 19:21:00,87.0,76.9,30.02,ESE,104,8.0,8.0,72,0.00,,FEW,0.03,132.00,VWS V14.01,2013-06-22 23:21:00,
2013-06-22 19:24:00,86.8,77.1,30.02,NE,56,2.0,4.0,73,0.00,,FEW,0.03,91.00,VWS V14.01,2013-06-22 23:24:00,
2013-06-22 19:25:00,86.8,77.1,30.02,NE,56,0.0,4.0,73,0.00,,FEW,0.03,91.00,VWS V14.01,2013-06-22 23:25:00,
2013-06-22 19:26:00,86.8,77.1,30.02,SE,126,0.0,4.0,73,0.00,,FEW,0.03,86.00,VWS V14.01,2013-06-22 23:26:00,
2013-06-22 19:27:00,86.7,77.4,30.02,NE,37,1.0,4.0,74,0.00,,FEW,0.03,105.00,VWS V14.01,2013-06-22 23:27:00,
2013-06-22 19:30:00,86.6,76.9,30.02,ENE,78,2.0,4.0,73,0.00,,FEW,0.03,90.00,VWS V14.01,2013-06-22 23:30:00,
2013-06-22 19:31:00,86.6,76.9,30.02,NE,48,3.0,5.0,73,0.00,,FEW,0.03,84.00,VWS V14.01,2013-06-22 23:31:00,
2013-06-22 19:32:00,86.5,76.8,30.02,ENE,76,2.0,7.0,73,0.00,,FEW,0.03,83.00,VWS V14.01,2013-06-22 23:32:00,
2013-06-22 19:35:00,86.3,77.0,30.02,NE,44,3.0,10.0,74,0.00,,FEW,0.03,70.00,VWS V14.01,2013-06-22 23:35:00,
2013-06-22 19:36:00,86.2,76.9,30.02,NE,55,2.0,10.0,74,0.00,,FEW,0.03,77.00,VWS V14.01,2013-06-22 23:36:00,
2013-06-22 19:37:00,86.1,76.8,30.02,ENE,71,2.0,10.0,74,0.00,,FEW,0.03,65.00,VWS V14.01,2013-06-22 23:37:00,
2013-06-22 19:40:00,86.0,77.2,30.02,ENE,58,2.0,10.0,75,0.00,,FEW,0.03,65.00,VWS V14.01,2013-06-22 23:40:00,
2013-06-22 19:41:00,86.0,77.2,30.02,ESE,118,3.0,10.0,75,0.00,,FEW,0.03,60.00,VWS V14.01,2013-06-22 23:41:00,
2013-06-22 19:42:00,86.0,77.2,30.02,East,84,2.0,4.0,75,0.00,,FEW,0.03,44.00,VWS V14.01,2013-06-22 23:42:00,
2013-06-22 19:45:00,85.8,77.0,30.02,SE,130,1.0,6.0,75,0.00,,FEW,0.03,33.00,VWS V14.01,2013-06-22 23:45:00,
2013-06-22 19:46:00,85.7,76.9,30.02,SE,130,0.0,6.0,75,0.00,,FEW,0.03,33.00,VWS V14.01,2013-06-22 23:46:00,
2013-06-22 19:47:00,85.7,76.9,30.02,SE,132,1.0,6.0,75,0.00,,FEW,0.03,28.00,VWS V14.01,2013-06-22 23:47:00,
2013-06-22 19:50:00,85.6,76.8,30.02,ENE,74,0.0,6.0,75,0.00,,FEW,0.03,21.00,VWS V14.01,2013-06-22 23:50:00,
2013-06-22 19:51:00,85.6,76.8,30.02,ENE,74,0.0,6.0,75,0.00,,FEW,0.03,21.00,VWS V14.01,2013-06-22 23:51:00,
2013-06-22 19:53:00,85.4,77.0,30.02,East,86,1.0,3.0,76,0.00,,FEW,0.03,19.00,VWS V14.01,2013-06-22 23:53:00,
2013-06-22 19:56:00,85.2,76.8,30.02,ENE,70,3.0,8.0,76,0.00,,FEW,0.03,18.00,VWS V14.01,2013-06-22 23:56:00,
2013-06-22 19:58:00,85.2,76.8,30.02,East,98,2.0,8.0,76,0.00,,FEW,0.03,16.00,VWS V14.01,2013-06-22 23:58:00,
2013-06-22 20:01:00,85.1,77.1,30.03,East,80,2.0,8.0,77,0.00,,FEW,0.03,14.00,VWS V14.01,2013-06-23 00:01:00,
2013-06-22 20:02:00,85.1,77.1,30.03,ENE,78,5.0,5.0,77,0.00,,FEW,0.03,12.00,VWS V14.01,2013-06-23 00:02:00,
2013-06-22 20:03:00,85.0,76.6,30.03,ENE,65,4.0,5.0,76,0.00,,FEW,0.03,12.00,VWS V14.01,2013-06-23 00:03:00,
2013-06-22 20:06:00,84.8,76.8,30.03,East,91,1.0,7.0,77,0.00,,FEW,0.03,11.00,VWS V14.01,2013-06-23 00:06:00,
2013-06-22 20:07:00,84.8,76.8,30.03,ENE,70,4.0,7.0,77,0.00,,FEW,0.03,9.00,VWS V14.01,2013-06-23 00:07:00,
2013-06-22 20:08:00,84.7,76.7,30.03,NE,51,3.0,7.0,77,0.00,,FEW,0.03,9.00,VWS V14.01,2013-06-23 00:08:00,
2013-06-22 20:11:00,84.6,76.6,30.03,East,83,2.0,7.0,77,0.00,,FEW,0.03,7.00,VWS V14.01,2013-06-23 00:11:00,
2013-06-22 20:12:00,84.5,76.5,30.03,ENE,76,0.0,3.0,77,0.00,,FEW,0.03,7.00,VWS V14.01,2013-06-23 00:12:00,
2013-06-22 20:13:00,84.4,76.4,30.03,East,80,0.0,4.0,77,0.00,,FEW,0.03,5.00,VWS V14.01,2013-06-23 00:13:00,
2013-06-22 20:16:00,84.4,76.4,30.03,East,97,5.0,9.0,77,0.00,,FEW,0.03,5.00,VWS V14.01,2013-06-23 00:16:00,
2013-06-22 20:17:00,84.3,76.3,30.03,ESE,116,3.0,9.0,77,0.00,,FEW,0.03,0.00,VWS V14.01,2013-06-23 00:17:00,
2013-06-22 20:19:00,84.3,76.3,30.03,East,101,1.0,9.0,77,0.00,,FEW,0.03,0.00,VWS V14.01,2013-06-23 00:19:00,
2013-06-22 20:21:00,84.3,76.7,30.03,East,97,2.0,9.0,78,0.00,,FEW,0.03,0.00,VWS V14.01,2013-06-23 00:21:00,
2013-06-22 20:22:00,84.3,76.7,30.03,NE,43,3.0,4.0,78,0.00,,FEW,0.03,0.00,VWS V14.01,2013-06-23 00:22:00,
2013-06-22 20:24:00,84.3,76.7,30.03,ESE,103,2.0,4.0,78,0.00,,FEW,0.03,0.00,VWS V14.01,2013-06-23 00:24:00,
2013-06-22 20:26:00,84.3,76.7,30.03,ENE,65,4.0,5.0,78,0.00,,FEW,0.03,0.00,VWS V14.01,2013-06-23 00:26:00,
2013-06-22 20:27:00,84.3,76.7,30.03,NE,40,2.0,5.0,78,0.00,,FEW,0.03,0.00,VWS V14.01,2013-06-23 00:27:00,
2013-06-22 20:28:00,84.3,76.7,30.03,ESE,114,2.0,5.0,78,0.00,,FEW,0.03,0.00,VWS V14.01,2013-06-23 00:28:00,
2013-06-22 20:29:00,84.3,76.7,30.03,ESE,115,2.0,5.0,78,0.00,,FEW,0.03,0.00,VWS V14.01,2013-06-23 00:29:00,
2013-06-22 20:31:00,84.2,76.6,30.03,East,94,1.0,6.0,78,0.00,,FEW,0.03,0.00,VWS V14.01,2013-06-23 00:31:00,
2013-06-22 20:33:00,84.1,76.5,30.03,East,98,2.0,3.0,78,0.00,,FEW,0.03,0.00,VWS V14.01,2013-06-23 00:33:00,
2013-06-22 20:34:00,84.1,76.5,30.03,East,86,7.0,8.0,78,0.00,,FEW,0.03,0.00,VWS V14.01,2013-06-23 00:34:00,
2013-06-22 20:36:00,84.0,76.4,30.03,ESE,106,2.0,8.0,78,0.00,,FEW,0.03,0.00,VWS V14.01,2013-06-23 00:36:00,
2013-06-22 20:37:00,84.0,76.4,30.03,ESE,123,2.0,8.0,78,0.00,,FEW,0.03,0.00,VWS V14.01,2013-06-23 00:37:00,
2013-06-22 20:38:00,84.0,76.8,30.03,ENE,59,2.0,8.0,79,0.00,,FEW,0.03,0.00,VWS V14.01,2013-06-23 00:38:00,
2013-06-22 20:39:00,84.0,76.8,30.03,ESE,115,1.0,8.0,79,0.00,,FEW,0.03,0.00,VWS V14.01,2013-06-23 00:39:00,
2013-06-22 20:42:00,84.0,76.8,30.03,ENE,66,0.0,8.0,79,0.00,,FEW,0.03,0.00,VWS V14.01,2013-06-23 00:42:00,
2013-06-22 20:43:00,83.9,76.7,30.03,East,86,5.0,5.0,79,0.00,,FEW,0.03,0.00,VWS V14.01,2013-06-23 00:43:00,
2013-06-22 20:44:00,83.9,76.7,30.03,ENE,78,0.0,5.0,79,0.00,,FEW,0.03,0.00,VWS V14.01,2013-06-23 00:44:00,
2013-06-22 20:47:00,83.9,76.7,30.04,ENE,65,0.0,5.0,79,0.00,,FEW,0.03,0.00,VWS V14.01,2013-06-23 00:47:00,
2013-06-22 20:48:00,83.9,76.7,30.04,ESE,111,1.0,5.0,79,0.00,,FEW,0.03,0.00,VWS V14.01,2013-06-23 00:48:00,
2013-06-22 20:49:00,83.9,76.7,30.04,East,90,1.0,5.0,79,0.00,,FEW,0.03,0.00,VWS V14.01,2013-06-23 00:49:00,
2013-06-22 20:52:00,83.9,77.1,30.04,ENE,66,0.0,1.0,80,0.00,,FEW,0.03,0.00,VWS V14.01,2013-06-23 00:52:00,
2013-06-22 20:53:00,83.9,77.1,30.04,East,94,2.0,5.0,80,0.00,,FEW,0.03,0.00,VWS V14.01,2013-06-23 00:53:00,
2013-06-22 20:54:00,83.9,77.1,30.04,NE,47,3.0,5.0,80,0.00,,FEW,0.03,0.00,VWS V14.01,2013-06-23 00:54:00,
2013-06-22 20:57:00,83.8,77.0,30.04,ENE,61,1.0,6.0,80,0.00,,FEW,0.03,0.00,VWS V14.01,2013-06-23 00:57:00,
2013-06-22 20:58:00,83.8,77.0,30.04,ENE,75,0.0,6.0,80,0.00,,FEW,0.03,0.00,VWS V14.01,2013-06-23 00:58:00,
2013-06-22 20:59:00,83.8,77.0,30.04,NE,48,2.0,6.0,80,0.00,,FEW,0.03,0.00,VWS V14.01,2013-06-23 00:59:00,
2013-06-22 21:02:00,83.7,76.9,30.04,ENE,73,3.0,3.0,80,0.00,,FEW,0.03,0.00,VWS V14.01,2013-06-23 01:02:00,
2013-06-22 21:04:00,83.7,76.9,30.04,ESE,121,3.0,3.0,80,0.00,,FEW,0.03,0.00,VWS V14.01,2013-06-23 01:04:00,
2013-06-22 21:07:00,83.7,76.9,30.04,ESE,104,1.0,5.0,80,0.00,,FEW,0.03,0.00,VWS V14.01,2013-06-23 01:07:00,
2013-06-22 21:09:00,83.7,77.2,30.04,ESE,121,0.0,5.0,81,0.00,,FEW,0.03,0.00,VWS V14.01,2013-06-23 01:09:00,
2013-06-22 21:12:00,83.7,77.2,30.04,East,88,1.0,3.0,81,0.00,,FEW,0.03,0.00,VWS V14.01,2013-06-23 01:12:00,
2013-06-22 21:14:00,83.7,77.2,30.04,East,101,3.0,5.0,81,0.00,,FEW,0.03,0.00,VWS V14.01,2013-06-23 01:14:00,
2013-06-22 21:15:00,83.7,77.2,30.04,ENE,74,0.0,5.0,81,0.00,,FEW,0.03,0.00,VWS V14.01,2013-06-23 01:15:00,
2013-06-22 21:17:00,83.7,77.2,30.05,SE,129,2.0,5.0,81,0.00,,FEW,0.03,0.00,VWS V14.01,2013-06-23 01:17:00,
2013-06-22 21:18:00,83.6,77.2,30.05,ENE,76,1.0,5.0,81,0.00,,FEW,0.03,0.00,VWS V14.01,2013-06-23 01:18:00,
2013-06-22 21:19:00,83.6,77.2,30.05,East,90,2.0,7.0,81,0.00,,FEW,0.03,0.00,VWS V14.01,2013-06-23 01:19:00,
2013-06-22 21:20:00,83.6,77.2,30.05,NNE,18,3.0,7.0,81,0.00,,FEW,0.03,0.00,VWS V14.01,2013-06-23 01:20:00,
2013-06-22 21:22:00,83.6,77.2,30.05,ESE,111,1.0,3.0,81,0.00,,FEW,0.03,0.00,VWS V14.01,2013-06-23 01:22:00,
2013-06-22 21:23:00,83.5,77.1,30.05,ESE,123,2.0,3.0,81,0.00,,FEW,0.03,0.00,VWS V14.01,2013-06-23 01:23:00,
2013-06-22 21:24:00,83.5,77.1,30.05,ESE,121,1.0,5.0,81,0.00,,FEW,0.03,0.00,VWS V14.01,2013-06-23 01:24:00,
2013-06-22 21:25:00,83.6,77.2,30.05,ENE,70,2.0,5.0,81,0.00,,FEW,0.03,0.00,VWS V14.01,2013-06-23 01:25:00,
2013-06-22 21:27:00,83.6,77.2,30.05,ENE,64,1.0,8.0,81,0.00,,FEW,0.03,0.00,VWS V14.01,2013-06-23 01:27:00,
2013-06-22 21:28:00,83.5,77.1,30.05,ESE,113,3.0,8.0,81,0.00,,FEW,0.03,0.00,VWS V14.01,2013-06-23 01:28:00,
2013-06-22 21:30:00,83.5,77.1,30.05,ESE,123,0.0,8.0,81,0.00,,FEW,0.03,0.00,VWS V14.01,2013-06-23 01:30:00,
2013-06-22 21:32:00,83.5,77.1,30.05,ESE,123,1.0,2.0,81,0.00,,FEW,0.03,0.00,VWS V14.01,2013-06-23 01:32:00,
2013-06-22 21:33:00,83.5,77.1,30.05,SE,130,2.0,2.0,81,0.00,,FEW,0.03,0.00,VWS V14.01,2013-06-23 01:33:00,
2013-06-22 21:35:00,83.5,77.1,30.05,ESE,108,2.0,4.0,81,0.00,,FEW,0.03,0.00,VWS V14.01,2013-06-23 01:35:00,
2013-06-22 21:38:00,83.4,77.0,30.05,SE,134,5.0,5.0,81,0.00,,FEW,0.03,0.00,VWS V14.01,2013-06-23 01:38:00,
2013-06-22 21:40:00,83.4,77.3,30.05,ESE,121,3.0,5.0,82,0.00,,FEW,0.03,0.00,VWS V14.01,2013-06-23 01:40:00,
2013-06-22 21:41:00,83.4,77.0,30.05,East,94,3.0,6.0,81,0.00,,FEW,0.03,0.00,VWS V14.01,2013-06-23 01:41:00,
2013-06-22 21:43:00,83.4,77.0,30.05,ENE,58,0.0,3.0,81,0.00,,FEW,0.03,0.00,VWS V14.01,2013-06-23 01:43:00,
2013-06-22 21:45:00,83.4,77.3,30.05,ESE,104,0.0,3.0,82,0.00,,FEW,0.03,0.00,VWS V14.01,2013-06-23 01:45:00,
2013-06-22 21:46:00,83.4,77.3,30.05,East,95,1.0,3.0,82,0.00,,FEW,0.03,0.00,VWS V14.01,2013-06-23 01:46:00,
2013-06-22 21:48:00,83.5,77.4,30.05,SE,146,0.0,6.0,82,0.00,,FEW,0.03,0.00,VWS V14.01,2013-06-23 01:48:00,
2013-06-22 21:50:00,83.5,77.4,30.05,ESE,116,0.0,6.0,82,0.00,,FEW,0.03,0.00,VWS V14.01,2013-06-23 01:50:00,
2013-06-22 21:51:00,83.5,77.4,30.05,East,92,0.0,6.0,82,0.00,,FEW,0.03,0.00,VWS V14.01,2013-06-23 01:51:00,
2013-06-22 21:53:00,83.5,77.8,30.05,East,88,1.0,4.0,83,0.00,,FEW,0.03,0.00,VWS V14.01,2013-06-23 01:53:00,
2013-06-22 21:55:00,83.5,77.8,30.05,SE,128,2.0,5.0,83,0.00,,FEW,0.03,0.00,VWS V14.01,2013-06-23 01:55:00,
2013-06-22 21:56:00,83.5,77.8,30.05,ESE,108,3.0,5.0,83,0.00,,FEW,0.03,0.00,VWS V14.01,2013-06-23 01:56:00,
2013-06-22 21:58:00,83.4,77.3,30.05,SE,128,2.0,5.0,82,0.00,,FEW,0.03,0.00,VWS V14.01,2013-06-23 01:58:00,
2013-06-22 22:00:00,83.3,77.2,30.05,SSE,153,4.0,5.0,82,0.00,,FEW,0.03,0.00,VWS V14.01,2013-06-23 02:00:00,
2013-06-22 22:01:00,83.3,77.2,30.06,NE,47,2.0,5.0,82,0.00,,FEW,0.03,0.00,VWS V14.01,2013-06-23 02:01:00,
2013-06-22 22:03:00,83.2,76.8,30.06,East,88,1.0,5.0,81,0.00,,FEW,0.03,0.00,VWS V14.01,2013-06-23 02:03:00,
2013-06-22 22:04:00,83.2,76.8,30.06,ESE,112,5.0,5.0,81,0.00,,FEW,0.03,0.00,VWS V14.01,2013-06-23 02:04:00,
2013-06-22 22:06:00,83.1,76.7,30.06,SE,129,2.0,7.0,81,0.00,,FEW,0.03,0.00,VWS V14.01,2013-06-23 02:06:00,
2013-06-22 22:09:00,83.1,76.7,30.06,East,95,3.0,7.0,81,0.00,,FEW,0.03,0.00,VWS V14.01,2013-06-23 02:09:00,
2013-06-22 22:11:00,83.1,76.7,30.06,ESE,115,3.0,7.0,81,0.00,,FEW,0.03,0.00,VWS V14.01,2013-06-23 02:11:00,
2013-06-22 22:14:00,83.2,76.8,30.06,ENE,65,3.0,7.0,81,0.00,,FEW,0.03,0.00,VWS V14.01,2013-06-23 02:14:00,
2013-06-22 22:16:00,83.2,76.8,30.06,East,83,1.0,7.0,81,0.00,,FEW,0.03,0.00,VWS V14.01,2013-06-23 02:16:00,
2013-06-22 22:19:00,83.2,76.8,30.06,NE,41,2.0,7.0,81,0.00,,FEW,0.03,0.00,VWS V14.01,2013-06-23 02:19:00,
2013-06-22 22:21:00,83.3,77.2,30.06,SSE,162,0.0,7.0,82,0.00,,FEW,0.03,0.00,VWS V14.01,2013-06-23 02:21:00,
2013-06-22 22:22:00,83.3,77.2,30.06,East,101,1.0,1.0,82,0.00,,FEW,0.03,0.00,VWS V14.01,2013-06-23 02:22:00,
2013-06-22 22:24:00,83.3,77.2,30.06,NE,36,0.0,5.0,82,0.00,,FEW,0.03,0.00,VWS V14.01,2013-06-23 02:24:00,
2013-06-22 22:26:00,83.3,77.2,30.06,ENE,69,2.0,6.0,82,0.00,,FEW,0.03,0.00,VWS V14.01,2013-06-23 02:26:00,
2013-06-22 22:27:00,83.3,77.2,30.06,East,86,5.0,8.0,82,0.00,,FEW,0.03,0.00,VWS V14.01,2013-06-23 02:27:00,
2013-06-22 22:29:00,83.2,77.1,30.06,ESE,109,3.0,8.0,82,0.00,,FEW,0.03,0.00,VWS V14.01,2013-06-23 02:29:00,
2013-06-22 22:31:00,83.2,77.1,30.06,ENE,59,3.0,8.0,82,0.00,,FEW,0.03,0.00,VWS V14.01,2013-06-23 02:31:00,
2013-06-22 22:32:00,83.2,77.1,30.06,East,95,3.0,3.0,82,0.00,,FEW,0.03,0.00,VWS V14.01,2013-06-23 02:32:00,
2013-06-22 22:34:00,83.2,77.1,30.06,East,101,1.0,4.0,82,0.00,,FEW,0.03,0.00,VWS V14.01,2013-06-23 02:34:00,
2013-06-22 22:36:00,83.3,77.6,30.06,ENE,59,2.0,4.0,83,0.00,,FEW,0.03,0.00,VWS V14.01,2013-06-23 02:36:00,
2013-06-22 22:37:00,83.3,77.6,30.06,ENE,59,2.0,4.0,83,0.00,,FEW,0.03,0.00,VWS V14.01,2013-06-23 02:37:00,
2013-06-22 22:39:00,83.3,77.2,30.06,ESE,114,2.0,7.0,82,0.00,,FEW,0.03,0.00,VWS V14.01,2013-06-23 02:39:00,
2013-06-22 22:42:00,83.3,77.6,30.06,ESE,115,1.0,1.0,83,0.00,,FEW,0.03,0.00,VWS V14.01,2013-06-23 02:42:00,
2013-06-22 22:44:00,83.3,77.6,30.06,ENE,61,1.0,6.0,83,0.00,,FEW,0.03,0.00,VWS V14.01,2013-06-23 02:44:00,
2013-06-22 22:47:00,83.2,77.5,30.06,NE,52,1.0,7.0,83,0.00,,FEW,0.03,0.00,VWS V14.01,2013-06-23 02:47:00,
2013-06-22 22:49:00,83.2,77.5,30.06,ESE,107,1.0,7.0,83,0.00,,FEW,0.03,0.00,VWS V14.01,2013-06-23 02:49:00,
2013-06-22 22:52:00,83.2,77.5,30.06,NE,53,1.0,3.0,83,0.00,,FEW,0.03,0.00,VWS V14.01,2013-06-23 02:52:00,
2013-06-22 22:54:00,83.2,77.5,30.06,SE,128,4.0,5.0,83,0.00,,FEW,0.03,0.00,VWS V14.01,2013-06-23 02:54:00,
2013-06-22 22:55:00,83.2,77.5,30.06,ESE,105,5.0,5.0,83,0.00,,FEW,0.03,0.00,VWS V14.01,2013-06-23 02:55:00,
2013-06-22 22:57:00,83.3,77.6,30.06,East,89,8.0,8.0,83,0.00,,FEW,0.03,0.00,VWS V14.01,2013-06-23 02:57:00,
2013-06-22 23:00:00,83.3,77.6,30.06,NE,39,1.0,8.0,83,0.00,,FEW,0.03,0.00,VWS V14.01,2013-06-23 03:00:00,
2013-06-22 23:02:00,83.3,77.6,30.06,ESE,117,4.0,4.0,83,0.00,,FEW,0.03,0.00,VWS V14.01,2013-06-23 03:02:00,
2013-06-22 23:05:00,83.2,77.5,30.06,ENE,78,0.0,7.0,83,0.00,,FEW,0.03,0.00,VWS V14.01,2013-06-23 03:05:00,
2013-06-22 23:07:00,83.2,77.5,30.06,NE,56,5.0,7.0,83,0.00,,FEW,0.03,0.00,VWS V14.01,2013-06-23 03:07:00,
2013-06-22 23:08:00,83.2,77.5,30.06,SE,136,4.0,7.0,83,0.00,,FEW,0.03,0.00,VWS V14.01,2013-06-23 03:08:00,
2013-06-22 23:10:00,83.2,77.5,30.06,NE,46,2.0,7.0,83,0.00,,FEW,0.03,0.00,VWS V14.01,2013-06-23 03:10:00,
2013-06-22 23:11:00,83.2,77.5,30.06,East,101,3.0,7.0,83,0.00,,FEW,0.03,0.00,VWS V14.01,2013-06-23 03:11:00,
2013-06-22 23:12:00,83.2,77.5,30.06,NE,55,4.0,4.0,83,0.00,,FEW,0.03,0.00,VWS V14.01,2013-06-23 03:12:00,
2013-06-22 23:13:00,83.2,77.1,30.06,East,87,2.0,5.0,82,0.00,,FEW,0.03,0.00,VWS V14.01,2013-06-23 03:13:00,
2013-06-22 23:15:00,83.2,77.5,30.06,ESE,113,0.0,6.0,83,0.00,,FEW,0.03,0.00,VWS V14.01,2013-06-23 03:15:00,
2013-06-22 23:16:00,83.2,77.5,30.07,ESE,102,2.0,6.0,83,0.00,,FEW,0.03,0.00,VWS V14.01,2013-06-23 03:16:00,
2013-06-22 23:17:00,83.2,77.1,30.07,NE,51,2.0,6.0,82,0.00,,FEW,0.03,0.00,VWS V14.01,2013-06-23 03:17:00,
2013-06-22 23:19:00,83.2,77.1,30.07,ENE,78,3.0,7.0,82,0.00,,FEW,0.03,0.00,VWS V14.01,2013-06-23 03:19:00,
2013-06-22 23:20:00,83.1,77.0,30.07,ENE,64,3.0,7.0,82,0.00,,FEW,0.03,0.00,VWS V14.01,2013-06-23 03:20:00,
2013-06-22 23:21:00,83.2,77.5,30.07,SE,135,1.0,7.0,83,0.00,,FEW,0.03,0.00,VWS V14.01,2013-06-23 03:21:00,
2013-06-22 23:22:00,83.2,77.5,30.07,SE,143,1.0,4.0,83,0.00,,FEW,0.03,0.00,VWS V14.01,2013-06-23 03:22:00,
2013-06-22 23:24:00,83.2,77.5,30.07,East,80,2.0,5.0,83,0.00,,FEW,0.03,0.00,VWS V14.01,2013-06-23 03:24:00,
2013-06-22 23:25:00,83.3,77.6,30.07,NNE,19,2.0,5.0,83,0.00,,FEW,0.03,0.00,VWS V14.01,2013-06-23 03:25:00,
2013-06-22 23:26:00,83.2,77.5,30.07,NE,36,5.0,5.0,83,0.00,,FEW,0.03,0.00,VWS V14.01,2013-06-23 03:26:00,
2013-06-22 23:28:00,83.2,77.5,30.07,ESE,117,2.0,6.0,83,0.00,,FEW,0.03,0.00,VWS V14.01,2013-06-23 03:28:00,
2013-06-22 23:29:00,83.2,77.5,30.07,East,98,6.0,6.0,83,0.00,,FEW,0.03,0.00,VWS V14.01,2013-06-23 03:29:00,
2013-06-22 23:30:00,83.2,77.5,30.07,ENE,74,2.0,6.0,83,0.00,,FEW,0.03,0.00,VWS V14.01,2013-06-23 03:30:00,
2013-06-22 23:32:00,83.2,77.5,30.07,ESE,106,1.0,2.0,83,0.00,,FEW,0.03,0.00,VWS V14.01,2013-06-23 03:32:00,
2013-06-22 23:33:00,83.2,77.5,30.07,SE,133,2.0,5.0,83,0.00,,FEW,0.03,0.00,VWS V14.01,2013-06-23 03:33:00,
2013-06-22 23:34:00,83.2,77.5,30.07,NE,46,1.0,5.0,83,0.00,,FEW,0.03,0.00,VWS V14.01,2013-06-23 03:34:00,
2013-06-22 23:35:00,83.2,77.5,30.07,East,84,0.0,7.0,83,0.00,,FEW,0.03,0.00,VWS V14.01,2013-06-23 03:35:00,
2013-06-22 23:37:00,83.2,77.5,30.07,ENE,59,2.0,7.0,83,0.00,,FEW,0.03,0.00,VWS V14.01,2013-06-23 03:37:00,
2013-06-22 23:38:00,83.2,77.5,30.07,East,92,3.0,7.0,83,0.00,,FEW,0.03,0.00,VWS V14.01,2013-06-23 03:38:00,
2013-06-22 23:39:00,83.2,77.5,30.07,ENE,65,0.0,7.0,83,0.00,,FEW,0.03,0.00,VWS V14.01,2013-06-23 03:39:00,
2013-06-22 23:41:00,83.2,77.5,30.07,NE,37,1.0,7.0,83,0.00,,FEW,0.03,0.00,VWS V14.01,2013-06-23 03:41:00,
2013-06-22 23:42:00,83.2,77.5,30.07,ESE,103,3.0,5.0,83,0.00,,FEW,0.03,0.00,VWS V14.01,2013-06-23 03:42:00,
2013-06-22 23:43:00,83.2,77.5,30.07,ESE,112,4.0,7.0,83,0.00,,FEW,0.03,0.00,VWS V14.01,2013-06-23 03:43:00,
2013-06-22 23:44:00,83.2,77.5,30.07,East,84,2.0,7.0,83,0.00,,FEW,0.03,0.00,VWS V14.01,2013-06-23 03:44:00,
2013-06-22 23:46:00,83.2,77.5,30.06,NE,34,1.0,7.0,83,0.00,,FEW,0.03,0.00,VWS V14.01,2013-06-23 03:46:00,
2013-06-22 23:47:00,83.2,77.5,30.06,East,101,2.0,8.0,83,0.00,,FEW,0.03,0.00,VWS V14.01,2013-06-23 03:47:00,
2013-06-22 23:48:00,83.2,77.5,30.06,ESE,119,3.0,8.0,83,0.00,,FEW,0.03,0.00,VWS V14.01,2013-06-23 03:48:00,
2013-06-22 23:49:00,83.2,77.5,30.06,NE,46,2.0,8.0,83,0.00,,FEW,0.03,0.00,VWS V14.01,2013-06-23 03:49:00,
2013-06-22 23:51:00,83.3,78.0,30.06,ESE,113,3.0,8.0,84,0.00,,FEW,0.03,0.00,VWS V14.01,2013-06-23 03:51:00,
2013-06-22 23:52:00,83.4,78.1,30.06,ENE,71,2.0,6.0,84,0.00,,FEW,0.03,0.00,VWS V14.01,2013-06-23 03:52:00,
2013-06-22 23:53:00,83.4,78.1,30.06,SE,126,5.0,6.0,84,0.00,,FEW,0.03,0.00,VWS V14.01,2013-06-23 03:53:00,
2013-06-22 23:54:00,83.4,78.1,30.06,East,92,3.0,6.0,84,0.00,,FEW,0.03,0.00,VWS V14.01,2013-06-23 03:54:00,
2013-06-22 23:56:00,83.4,78.1,30.06,SE,136,4.0,8.0,84,0.00,,FEW,0.03,0.00,VWS V14.01,2013-06-23 03:56:00,
2013-06-22 23:57:00,83.4,77.7,30.06,ENE,70,1.0,9.0,83,0.00,,FEW,0.03,0.00,VWS V14.01,2013-06-23 03:57:00,
2013-06-22 23:58:00,83.3,77.6,30.06,SSE,164,7.0,9.0,83,0.00,,FEW,0.03,0.00,VWS V14.01,2013-06-23 03:58:00,
2013-06-22 23:59:00,83.3,77.6,30.06,SE,134,2.0,9.0,83,0.00,,FEW,0.03,0.00,VWS V14.01,2013-06-23 03:59:00,